GFSFLT1_850_thetae_000.txt.gz
Theta_e
311 309 308 307 307 304 303 302 302 301 301 301 301 302 303 303 303 303 301 300 299 299 301 299 301 301 300 298 299 302 305 309
310 308 307 307 306 304 303 302 302 301 302 303 303 303 303 304 303 302 302 302 301 302 301 302 301 302 302 301 300 300 301 303
310 309 308 307 306 305 304 303 302 302 303 303 302 302 302 302 302 303 303 301 302 301 301 301 301 301 301 301 301 300 300 300
310 309 308 307 306 306 305 304 303 302 301 301 301 301 301 302 302 302 303 301 302 302 301 301 301 301 301 301 300 300 300 299
309 309 308 307 307 306 305 304 303 302 300 301 301 302 302 302 301 301 301 301 300 300 301 301 302 301 300 300 299 300 300 300
310 309 308 308 307 307 305 304 303 302 301 300 302 302 301 301 301 300 301 299 297 297 300 301 301 301 301 301 301 299 299 299
311 310 309 308 307 305 304 303 303 302 300 299 299 299 301 300 300 300 299 299 299 299 299 299 299 299 299 300 300 300 300 299
311 310 308 308 307 306 304 303 303 302 300 299 299 298 300 299 298 298 297 297 297 296 296 295 295 295 295 296 296 297 297 297
311 309 308 307 307 305 304 303 302 302 300 299 299 298 297 297 295 295 294 294 292 291 291 291 291 292 292 292 293 293 294 295
311 310 308 308 309 307 304 303 302 300 299 298 298 296 295 295 294 293 293 292 292 291 290 289 289 289 290 292 293 294 294 295
312 311 309 309 308 306 304 302 301 300 299 298 296 296 295 293 292 292 292 291 290 289 289 290 291 291 291 291 292 292 293 293
312 310 310 309 306 306 305 302 300 299 297 296 295 294 293 292 292 291 291 290 289 290 290 290 290 290 290 290 291 291 292 292
311 311 309 307 305 304 302 300 298 296 296 295 294 293 292 291 291 291 290 290 289 289 289 289 289 289 289 289 289 290 290 291
311 311 308 304 302 301 298 297 296 295 295 294 294 293 291 292 291 291 290 289 289 288 288 288 287 287 288 288 288 289 289 290
310 311 307 302 300 299 297 296 295 296 296 294 292 292 291 291 290 289 289 288 288 287 287 287 287 287 287 287 288 288 288 288
310 308 305 301 298 297 295 296 296 297 295 293 293 291 291 290 289 288 288 287 286 286 286 286 286 286 287 287 287 286 286 286
308 305 302 299 297 296 297 298 297 296 294 293 292 291 290 290 288 288 287 286 286 286 286 286 286 286 286 285 283 283 283 284
307 303 299 297 296 298 298 299 296 294 294 292 291 291 290 289 287 286 286 285 285 285 285 286 286 286 285 283 283 283 283 283
305 301 297 296 298 299 299 296 295 294 291 291 291 290 289 287 286 285 285 285 285 285 285 285 285 284 284 283 284 283 283 284

GFSFLT1_850_thetae_003.txt.gz
Theta_e
316 314 313 312 311 310 309 308 307 307 307 306 307 307 308 307 307 307 306 306 303 304 305 306 305 304 304 304 303 303 303 304
316 315 313 311 311 309 308 308 307 306 306 306 306 307 307 307 306 306 306 305 305 305 304 304 304 304 304 304 304 304 303 303
316 314 313 312 311 310 309 308 307 307 306 306 307 307 306 306 306 306 306 305 305 305 304 304 303 303 304 304 303 303 303 303
315 314 313 313 312 311 310 308 308 307 306 306 305 305 305 305 305 305 306 306 306 305 305 304 304 304 303 304 303 303 302 302
314 313 313 313 312 312 310 309 308 307 306 305 305 305 305 305 305 305 304 304 305 305 304 303 303 303 303 303 303 302 302 302
314 314 313 313 312 312 311 310 309 307 306 305 304 304 304 304 304 304 304 304 304 303 303 302 302 302 302 301 301 301 302 302
314 314 313 312 311 312 311 311 309 307 306 305 304 303 304 304 303 303 303 301 301 301 301 300 300 300 300 300 300 300 300 300
315 314 313 313 311 311 311 310 310 308 306 305 304 304 303 303 303 301 301 300 299 298 298 297 296 295 296 296 296 296 296 297
315 314 313 312 312 311 311 310 309 308 307 305 304 304 303 302 300 299 298 297 297 296 295 295 294 294 294 294 294 294 294 294
315 315 314 313 312 311 311 311 310 308 306 305 304 303 301 299 299 297 296 296 295 294 294 294 293 293 293 293 293 293 294 294
315 314 314 313 312 312 311 310 309 308 305 303 302 300 298 297 296 297 295 294 294 294 293 292 292 292 292 293 293 293 293 293
314 314 313 313 313 311 309 308 307 306 303 301 299 298 296 297 295 294 294 294 293 292 292 292 292 292 292 292 292 292 292 292
314 313 313 312 312 309 307 306 304 302 300 298 297 296 295 295 294 294 294 293 292 292 292 291 291 291 291 291 291 291 291 291
313 312 313 312 310 307 305 304 302 300 298 297 296 295 295 295 294 294 293 292 292 291 291 290 290 290 290 290 290 290 290 290
312 312 312 311 309 306 303 302 300 298 297 296 296 296 295 294 293 293 292 292 291 290 290 289 289 289 289 289 289 289 289 289
312 311 310 310 307 304 302 300 298 297 297 297 297 296 295 294 293 292 292 291 290 289 288 289 289 288 288 288 288 288 288 287
311 310 309 309 304 302 301 299 298 298 299 298 296 295 294 293 292 291 291 289 288 288 288 288 288 288 288 287 287 286 285 284
310 308 308 307 303 300 299 299 300 299 297 296 295 294 293 292 291 291 289 288 288 288 288 287 287 287 287 286 285 284 284 284
307 307 307 304 301 300 300 300 299 297 297 295 293 292 292 291 290 289 288 288 287 287 287 286 286 286 285 284 284 283 283 284

GFSFLT1_850_thetae_006.txt.gz
Theta_e
318 317 316 315 314 313 312 311 310 310 309 308 309 309 308 309 309 309 308 306 305 304 306 305 305 305 305 305 304 303 303 303
317 317 316 315 313 313 311 310 310 309 308 308 307 308 308 308 308 307 307 307 306 305 305 305 305 305 304 304 304 304 303 303
317 317 316 315 314 312 312 310 309 309 308 307 307 307 308 308 307 307 307 306 305 305 305 304 304 304 303 304 304 304 303 303
315 315 315 315 314 314 312 311 310 309 308 308 307 307 307 307 306 306 306 305 306 306 306 305 304 304 304 304 303 303 303 303
316 315 314 314 314 314 314 313 311 310 309 308 307 307 306 306 305 305 305 306 306 306 305 305 304 303 303 303 303 303 303 302
315 315 315 315 313 313 313 312 312 311 310 309 308 307 306 305 306 305 304 304 304 304 304 304 303 303 302 302 301 299 299 301
315 316 315 314 314 312 312 312 312 311 310 310 308 307 306 305 304 304 304 304 303 303 302 301 301 301 301 300 297 298 298 297
316 315 315 314 314 313 312 312 312 311 311 310 309 307 306 305 304 304 303 303 302 301 300 299 299 299 296 294 293 293 293 293
316 316 316 315 314 314 313 312 311 312 311 311 309 308 306 305 304 304 302 301 300 299 298 296 295 294 293 292 292 292 292 292
317 316 315 314 314 314 314 313 312 312 311 311 310 307 306 304 304 302 301 298 297 296 295 295 295 293 292 292 292 292 293 293
316 315 315 314 314 313 312 312 311 310 309 309 308 306 305 304 301 299 297 297 297 295 295 294 292 291 291 291 291 292 292 292
316 315 314 313 313 312 311 310 309 308 307 307 306 304 302 300 299 297 297 295 295 294 294 292 291 291 291 291 291 291 292 291
314 313 313 313 312 311 311 309 307 306 305 303 303 301 299 297 295 295 296 295 294 294 292 292 292 291 291 291 291 291 291 291
314 313 313 312 311 311 310 307 305 304 302 300 299 298 296 295 296 296 296 294 293 292 292 292 291 291 290 290 290 290 290 290
313 312 312 311 310 309 309 305 303 302 300 299 297 296 296 296 296 295 294 293 292 292 292 291 290 289 289 289 289 289 289 289
313 312 311 309 309 309 306 304 302 301 299 298 297 297 297 297 295 294 293 292 292 291 290 289 289 289 288 288 288 288 288 288
311 310 308 308 308 308 304 301 301 299 298 299 299 298 296 295 294 293 292 292 291 289 289 288 288 288 288 287 287 287 287 286
311 309 307 308 307 305 303 300 300 300 300 299 297 296 295 294 293 292 291 290 289 288 288 288 287 287 287 287 286 286 285 285
308 307 307 307 306 305 303 302 301 300 298 297 296 295 293 293 292 291 289 289 288 288 287 287 286 286 285 284 284 285 285 285

GFSFLT1_850_thetae_009.txt.gz
Theta_e
317 317 317 316 315 315 314 313 312 311 310 310 310 310 309 309 310 310 308 307 306 304 305 306 305 305 304 304 304 303 303 303
317 317 316 316 315 314 314 313 312 311 310 309 309 308 308 307 309 309 308 308 307 306 305 305 305 304 304 304 303 304 303 303
316 316 316 315 315 315 314 313 312 311 310 309 309 308 307 307 307 308 308 307 307 306 305 305 305 304 304 304 303 303 303 303
315 315 315 314 314 314 314 314 313 312 311 309 309 308 307 307 308 308 307 307 307 306 306 305 305 305 304 304 304 303 302 303
315 315 315 314 314 314 314 313 313 313 312 310 309 309 308 307 307 307 306 306 305 305 306 306 305 305 303 303 303 302 303 302
315 315 315 314 314 313 313 312 312 312 311 311 310 309 309 308 307 306 306 305 305 306 306 306 305 304 304 303 303 302 301 299
315 316 316 316 315 314 313 313 312 312 312 311 311 311 310 309 308 306 306 305 304 305 305 304 303 303 302 301 300 300 296 294
316 316 316 315 315 314 314 313 313 313 313 312 312 311 311 310 309 307 305 305 304 303 302 301 300 300 300 299 298 296 296 293
317 316 315 315 314 313 313 313 313 313 312 312 312 311 311 311 310 307 305 304 303 301 301 300 298 297 299 299 296 293 291 291
317 316 315 314 314 313 313 313 313 312 311 310 310 309 308 310 308 305 305 303 300 299 299 296 296 298 297 293 293 291 291 291
315 314 314 313 313 313 313 312 312 310 309 308 307 307 307 307 306 304 302 300 299 298 297 298 297 293 293 292 290 291 291 291
314 314 313 313 312 312 312 311 309 309 307 306 305 305 305 304 303 300 299 300 300 298 298 294 293 292 292 291 292 291 291 291
313 313 312 312 311 311 311 309 308 307 304 304 304 303 303 301 300 299 297 296 296 296 294 293 292 292 292 292 291 291 290 290
313 313 312 311 310 308 308 307 308 306 303 303 302 301 300 298 297 295 296 296 296 293 292 292 292 292 291 290 289 288 289 289
313 312 311 310 310 307 307 308 307 305 302 301 300 298 297 296 295 296 295 295 293 293 292 292 291 290 289 289 288 288 288 288
311 310 310 307 306 307 307 307 306 301 300 299 297 296 296 296 297 297 294 293 293 292 292 291 290 288 288 288 288 288 288 287
310 309 309 306 306 308 307 306 304 301 299 299 298 298 299 298 296 295 294 293 292 291 291 289 288 288 287 287 287 287 286 286
310 309 307 306 307 306 305 303 302 302 301 300 299 299 297 295 294 293 293 292 291 289 288 288 287 287 287 286 285 285 284 284
309 306 305 306 305 304 302 301 301 301 299 297 296 295 295 293 293 292 292 290 289 288 287 286 286 286 285 284 284 284 284 284

GFSFLT1_850_thetae_012.txt.gz
Theta_e
317 317 317 316 316 315 315 314 314 313 312 311 310 310 310 310 309 309 308 308 309 308 305 304 305 305 305 305 304 304 302 302
316 317 316 316 315 315 315 314 313 312 312 311 310 310 309 308 309 308 307 308 308 308 307 306 305 305 305 304 304 303 302 302
316 316 316 315 315 314 314 314 313 313 312 311 311 310 309 309 308 307 307 308 308 308 307 307 305 305 304 304 304 303 303 302
315 315 315 314 314 314 314 313 313 313 313 312 312 311 310 309 309 308 307 307 308 308 307 307 306 305 305 304 304 304 303 302
315 315 314 314 314 314 313 313 313 312 312 312 312 311 311 311 310 309 308 307 307 307 307 306 306 305 305 304 304 303 303 303
315 315 315 315 315 314 314 314 313 312 312 312 312 312 311 311 311 310 309 307 306 306 306 306 306 305 305 303 303 302 302 299
315 315 315 315 315 315 315 314 313 313 313 313 313 313 313 312 312 311 311 309 307 306 305 306 306 305 305 304 303 301 299 300
315 316 316 315 315 314 313 313 313 313 313 313 312 311 311 311 312 311 311 309 307 306 305 306 305 302 303 302 300 299 299 299
316 315 315 314 314 313 313 313 313 312 312 312 311 309 309 309 308 308 308 308 304 303 303 302 300 299 300 298 298 299 299 296
314 314 313 313 313 313 312 312 312 311 311 310 308 308 307 306 306 306 308 305 302 301 301 299 301 301 300 300 296 295 293 292
314 313 313 312 312 312 311 311 310 309 308 308 307 306 305 305 304 304 304 303 299 298 298 299 299 297 296 295 293 292 292 291
313 313 313 312 312 310 309 308 307 307 307 307 306 304 304 303 303 303 301 299 298 300 300 297 296 294 293 292 292 292 292 291
313 313 312 311 308 308 307 305 307 306 306 305 304 302 302 302 301 300 299 298 298 296 295 293 292 292 292 292 292 291 290 289
313 311 310 309 307 307 306 306 307 307 306 303 302 301 300 299 298 298 296 296 296 295 293 293 292 292 292 291 290 289 288 288
311 309 309 308 307 306 306 307 307 306 303 301 299 298 297 296 295 295 296 295 294 293 292 292 292 291 291 289 288 288 287 288
311 309 307 308 305 304 306 306 305 304 302 301 298 297 296 296 296 296 296 296 295 292 292 291 291 290 288 288 287 287 287 287
310 308 308 307 305 305 305 304 302 300 300 301 300 298 298 297 298 294 293 292 292 292 292 290 288 288 287 286 286 286 286 285
308 309 309 306 305 305 304 302 299 298 299 299 299 298 296 294 293 293 292 292 292 291 289 288 287 286 286 286 285 284 284 284
308 309 307 306 305 304 302 299 297 297 296 296 296 295 295 293 292 292 291 291 289 289 288 287 286 285 285 284 284 283 283 283

GFSFLT1_850_thetae_015.txt.gz
Theta_e
317 318 319 319 317 316 315 315 314 313 312 312 311 311 311 310 310 309 308 309 308 307 308 308 306 305 305 304 305 305 304 304
316 316 316 317 316 315 315 314 314 313 313 312 312 311 311 311 310 310 309 308 307 307 307 308 307 307 306 305 305 304 304 303
316 315 315 316 315 315 314 314 313 313 313 312 312 312 312 311 311 310 309 309 309 308 307 307 307 307 307 306 305 305 304 304
315 315 315 315 314 314 314 314 313 313 313 313 312 312 312 312 311 311 311 310 309 308 307 307 307 307 307 306 305 304 304 304
314 314 315 315 315 315 315 314 314 313 313 312 312 312 312 312 312 312 312 311 309 308 307 307 307 308 307 305 304 304 303 304
315 315 315 315 315 315 315 315 313 313 312 312 313 313 313 312 312 312 311 311 311 308 307 307 307 308 306 304 304 303 304 303
315 315 315 315 315 314 313 313 312 313 314 314 313 312 312 312 311 309 309 310 310 310 309 306 308 307 305 304 303 302 300 300
314 314 314 314 314 313 313 313 313 313 313 313 312 311 310 310 309 307 307 307 307 307 307 305 306 305 305 302 300 299 299 300
314 315 314 313 313 313 312 312 312 312 311 310 310 308 307 307 306 305 305 305 306 306 305 304 303 300 297 298 298 299 300 299
313 313 313 313 312 312 312 311 310 309 307 306 306 306 305 306 306 304 303 303 305 303 300 299 297 297 298 299 299 298 297 294
313 313 312 312 311 310 308 307 306 305 306 305 305 305 303 304 304 303 303 303 303 300 298 297 298 299 299 297 294 293 292 292
313 313 312 310 309 308 307 307 305 305 305 306 306 302 302 302 302 302 302 300 298 297 298 299 298 293 293 292 292 292 292 292
312 312 311 309 307 308 306 305 304 304 306 306 304 302 301 301 301 300 299 298 298 298 298 295 293 292 292 292 292 292 290 290
312 312 311 309 307 307 305 304 303 305 305 303 302 301 300 299 298 297 297 296 295 295 294 293 292 292 292 291 291 290 289 288
312 312 309 308 308 307 304 303 304 304 303 302 300 300 298 297 295 295 295 294 294 294 295 292 292 292 291 290 289 288 287 287
312 310 308 307 309 306 305 304 304 303 301 299 300 299 297 295 295 295 295 295 294 292 292 292 291 291 289 288 287 286 286 286
309 307 307 306 306 306 305 304 303 301 298 297 298 298 297 296 295 293 293 293 293 292 292 291 290 288 287 286 285 285 285 284
305 302 304 304 306 306 305 303 301 298 296 296 295 295 294 294 294 294 293 293 291 290 289 288 287 286 286 285 284 284 284 283
302 301 303 306 307 305 303 301 300 298 297 297 296 296 295 293 292 291 290 290 289 288 288 287 286 285 284 284 283 283 283 283

GFSFLT1_850_thetae_018.txt.gz
Theta_e
323 319 320 321 320 318 316 315 314 313 313 312 312 312 311 311 311 311 310 310 309 309 308 308 307 308 307 307 306 305 305 305
316 316 316 316 318 317 315 314 314 314 313 312 312 312 312 312 312 311 311 311 310 309 309 308 307 307 307 307 307 306 306 305
316 316 315 315 316 315 315 314 314 313 313 313 312 312 312 312 312 312 312 312 311 311 310 309 308 307 307 307 307 307 306 306
315 315 315 315 315 314 314 314 313 313 312 312 312 312 312 312 312 312 312 312 311 311 310 309 308 307 307 307 307 307 307 306
315 315 315 315 314 314 314 314 313 312 312 312 312 312 312 313 312 311 311 311 310 309 310 310 309 307 307 307 307 307 306 305
314 314 314 314 313 313 313 312 312 312 312 313 313 313 313 312 311 311 309 308 308 308 308 307 309 308 307 308 308 306 305 304
313 313 313 313 313 312 312 312 313 313 313 313 312 311 311 310 309 308 307 307 307 306 306 306 306 307 306 306 306 304 304 303
312 313 313 313 313 313 313 312 312 312 312 311 310 308 306 306 305 304 304 305 305 304 303 303 305 305 304 303 302 300 298 298
313 313 313 312 312 312 312 311 311 310 308 306 305 305 304 303 302 301 303 304 303 303 303 303 304 302 300 298 298 297 298 299
312 312 312 312 312 311 309 309 307 306 305 304 305 304 304 302 301 300 302 302 302 302 302 301 300 298 298 298 298 299 297 296
313 312 312 312 311 308 307 307 305 304 303 302 303 303 302 302 301 300 301 302 301 301 299 298 297 298 298 298 297 293 293 292
311 311 311 311 310 308 307 306 303 302 301 301 301 301 300 300 300 300 300 299 299 297 297 298 298 297 293 292 292 292 292 292
311 311 311 311 309 307 307 304 302 303 302 302 301 300 299 299 299 298 297 296 296 296 297 294 293 293 292 292 292 292 291 290
310 310 311 310 306 305 307 307 305 304 304 303 301 299 298 299 296 296 295 295 295 295 296 295 294 293 292 292 291 290 289 288
310 310 308 304 302 302 303 304 306 305 303 301 299 297 297 296 295 295 294 294 294 294 293 292 292 291 291 290 289 288 287 287
309 307 303 302 302 302 304 306 305 303 302 299 297 296 297 297 295 294 295 294 292 292 292 292 292 291 290 288 287 286 286 286
305 303 302 302 303 305 305 304 303 301 299 297 296 295 296 294 294 294 294 294 294 293 292 290 289 288 287 286 286 285 284 284
303 302 302 304 304 303 303 301 300 298 298 298 298 296 296 295 294 292 292 291 290 289 289 288 287 286 285 285 284 283 283 282
302 303 300 297 296 296 297 299 298 297 297 296 296 294 293 293 292 292 290 289 288 288 287 286 286 285 284 283 282 282 282 282

GFSFLT1_850_thetae_021.txt.gz
Theta_e
325 324 323 322 322 322 323 319 315 314 313 313 312 312 312 312 312 312 311 311 311 311 311 311 310 309 308 308 308 307 307 306
321 319 317 316 317 320 320 317 315 314 313 313 312 312 312 312 312 312 311 311 311 310 310 310 309 309 309 308 308 308 307 307
315 316 316 315 316 317 316 315 314 314 313 312 312 311 312 312 312 313 313 312 312 312 312 311 311 310 308 308 308 308 308 307
315 315 315 315 315 315 315 314 314 312 312 311 311 311 312 312 312 313 312 311 311 311 310 310 310 309 310 310 308 308 308 308
313 314 313 313 313 313 312 312 312 312 312 312 312 312 311 312 311 310 310 309 308 307 307 307 307 307 307 309 309 308 307 308
312 312 312 312 312 312 312 312 312 312 312 312 312 311 310 308 307 306 305 305 304 303 304 305 304 304 305 306 307 307 306 307
311 312 312 312 312 312 312 312 312 312 311 311 312 312 310 307 305 304 303 302 301 301 303 303 302 303 303 304 305 305 304 303
312 312 312 312 312 312 312 311 312 312 312 311 310 307 304 303 302 302 301 301 300 301 302 302 302 302 303 303 301 300 299 299
312 312 312 312 312 312 311 311 312 311 309 305 303 302 302 300 300 299 300 300 300 301 302 301 301 301 301 299 298 298 297 298
312 311 311 311 311 311 310 309 306 305 303 301 301 301 301 300 299 299 299 300 300 301 300 299 299 298 298 298 298 298 297 295
311 310 311 311 311 311 308 307 307 304 303 303 303 303 301 299 299 298 299 299 299 298 297 297 297 296 296 295 293 293 292 293
310 310 310 311 311 308 304 303 305 306 305 304 304 303 301 299 298 298 298 298 297 297 297 295 296 295 293 293 292 292 292 291
310 310 309 309 309 305 302 302 303 305 305 305 304 302 300 298 296 297 296 296 296 295 295 295 295 294 293 292 292 291 291 290
310 310 307 307 307 304 303 302 302 304 305 303 301 299 298 297 297 296 295 295 295 295 295 292 292 292 292 291 290 290 289 288
310 308 306 303 302 303 303 302 301 303 302 301 299 297 296 296 295 295 294 294 294 292 292 291 291 292 291 291 290 288 287 286
308 304 302 302 303 301 297 296 296 298 299 297 298 297 296 295 294 294 294 293 292 292 293 293 292 290 289 288 287 286 286 285
304 302 301 302 298 296 296 296 297 298 297 297 296 297 297 296 293 292 292 292 291 290 289 289 288 288 286 286 285 284 284 283
301 302 301 296 295 295 296 296 296 296 296 294 294 294 293 293 292 292 291 290 289 288 288 287 286 286 285 284 283 283 282 282
301 301 297 295 295 295 296 295 296 295 294 293 292 292 291 291 290 288 287 287 287 287 286 286 285 284 283 283 282 282 282 282

GFSFLT1_850_thetae_024.txt.gz
Theta_e
326 324 323 323 324 324 325 326 326 319 315 314 313 312 312 312 312 312 312 312 311 311 311 312 314 315 315 315 315 315 314 312
318 322 321 317 316 318 323 324 322 318 317 316 317 316 314 313 313 312 311 312 313 313 312 312 312 314 315 314 314 315 315 313
316 316 314 314 315 317 318 317 316 316 315 313 312 311 312 312 313 313 313 312 312 311 310 310 311 312 313 313 314 314 314 313
315 315 314 314 314 314 314 314 314 313 312 313 313 313 313 313 312 312 311 310 307 306 304 304 304 306 310 311 312 312 313 313
314 315 314 313 313 312 312 312 312 312 312 312 311 312 312 312 311 310 310 308 306 304 304 304 304 306 308 309 309 310 311 311
314 314 314 314 312 312 312 313 312 311 311 312 315 314 312 311 313 311 307 306 305 304 305 300 301 303 305 305 307 308 308 309
314 314 314 314 314 313 313 312 312 311 311 310 311 308 306 307 306 305 304 303 303 303 304 300 301 302 302 302 303 303 304 305
315 314 314 314 314 313 312 312 311 310 309 307 306 305 305 304 304 303 303 302 302 302 301 302 303 302 301 301 301 301 300 300
315 314 314 314 313 313 312 312 311 309 308 306 303 300 303 304 303 303 302 301 301 301 301 301 300 300 301 299 299 299 299 298
314 314 314 313 313 313 312 310 309 309 307 306 305 305 304 304 303 301 300 299 300 300 300 300 300 299 298 297 297 296 294 294
314 313 313 312 312 311 310 308 308 308 307 307 305 305 304 302 300 299 299 299 299 300 299 298 297 297 296 295 295 296 294 294
313 312 311 311 310 309 307 307 307 307 307 305 304 304 302 300 299 298 298 298 298 298 297 296 295 295 294 293 293 293 293 293
312 311 311 309 308 306 306 306 305 304 303 302 302 302 300 299 298 297 297 296 296 296 296 295 293 293 293 293 293 292 291 291
311 311 310 308 305 305 304 302 300 299 300 300 301 300 299 298 297 295 295 294 294 294 294 294 293 292 292 291 291 290 290 290
311 310 308 305 304 302 299 299 298 299 299 299 299 299 297 296 296 294 295 295 295 295 294 292 292 292 290 289 289 289 288 288
310 307 304 303 301 298 298 298 298 299 298 298 298 298 297 297 296 294 294 295 294 293 292 290 290 289 288 287 286 287 287 287
307 303 303 301 298 297 297 298 298 298 297 297 297 295 295 295 295 294 292 291 290 290 289 289 288 288 287 286 285 284 285 286
302 303 301 299 298 297 297 298 298 297 296 296 295 294 293 292 291 291 290 290 289 288 288 288 287 287 286 284 284 283 284 285
301 302 300 299 297 296 296 297 297 296 295 295 293 293 292 291 291 290 289 288 288 288 287 287 286 286 284 283 283 283 284 285

GFSFLT1_850_thetae_027.txt.gz
Theta_e
327 328 325 325 325 327 328 329 331 329 326 323 320 320 319 319 317 316 316 316 316 316 316 317 317 317 317 317 316 316 316 316
323 321 321 321 322 324 326 327 327 325 323 321 319 318 318 316 316 315 316 316 315 315 314 314 314 314 314 314 315 316 316 316
319 320 320 319 319 320 320 320 318 317 317 316 316 315 316 316 316 315 314 314 313 313 312 311 311 311 311 311 312 313 314 314
319 319 319 319 318 318 317 317 316 315 314 316 316 315 315 315 315 315 314 313 312 311 310 309 309 309 309 309 310 310 311 312
318 318 318 318 318 317 317 316 316 315 314 315 316 316 316 316 315 313 313 311 309 308 307 307 307 308 307 308 308 308 309 310
318 318 318 318 317 317 316 315 315 315 314 313 314 314 313 311 311 310 308 307 306 305 305 305 306 306 306 307 307 307 307 307
318 317 317 317 317 317 316 315 315 314 313 313 312 311 310 308 308 307 306 306 305 304 304 304 305 305 306 305 305 305 304 303
318 317 317 317 316 316 316 315 315 314 312 311 310 309 308 307 307 306 306 305 303 302 303 303 304 304 303 302 302 301 300 299
317 316 316 316 316 316 316 315 313 311 311 310 309 309 308 307 307 306 304 302 301 302 302 302 301 301 301 300 299 298 298 297
316 316 316 315 314 313 314 313 311 310 310 310 309 309 307 307 306 304 302 301 301 301 301 301 300 300 299 298 298 297 297 295
316 315 314 313 313 312 311 310 309 309 309 308 307 306 305 304 303 301 300 300 300 299 299 299 299 298 297 296 295 295 295 295
315 314 313 313 312 311 309 309 308 306 304 303 303 303 303 302 301 300 300 299 298 297 295 295 296 295 295 295 294 294 294 293
314 313 313 312 311 308 307 306 303 301 300 300 301 301 301 301 300 298 298 297 297 296 295 295 296 295 294 294 293 293 292 292
313 313 312 311 309 307 305 301 300 300 300 300 300 300 300 299 298 298 297 296 296 296 296 295 295 294 293 293 292 292 291 290
313 312 311 309 307 304 301 299 299 300 300 299 299 299 299 299 297 296 296 296 295 294 294 294 293 292 291 290 290 289 289 289
312 311 309 306 304 301 300 299 299 299 299 299 298 297 297 296 296 296 295 295 293 293 292 291 291 290 290 289 288 287 286 287
310 307 304 304 301 300 299 298 299 299 298 298 297 296 295 295 295 294 293 293 292 291 290 290 290 289 289 288 287 286 285 286
304 302 303 303 301 300 298 298 298 298 298 297 296 295 295 294 293 293 292 292 290 290 289 289 289 288 288 287 286 285 284 285
302 302 303 301 300 299 298 297 297 297 297 296 295 294 294 293 292 292 291 289 289 289 289 288 288 287 286 286 285 284 284 284

GFSFLT1_850_thetae_030.txt.gz
Theta_e
326 327 327 326 326 327 328 329 331 332 329 326 323 321 320 320 319 317 317 316 316 315 313 313 313 314 314 314 315 315 316 316
323 324 323 323 323 326 327 329 328 328 326 323 321 320 318 318 316 316 316 316 315 314 314 314 313 312 312 312 311 311 311 314
321 321 320 320 321 320 320 321 321 319 317 317 317 317 316 316 316 317 315 315 315 314 312 311 310 309 309 308 308 310 311 312
321 321 320 319 319 318 318 317 317 315 315 316 316 316 315 316 316 315 315 315 314 311 309 308 306 306 307 307 304 306 308 309
320 320 320 319 319 318 317 317 316 316 314 315 316 315 316 316 315 312 312 311 308 307 306 305 305 305 305 305 306 307 307 307
319 319 319 319 318 318 317 316 316 315 314 314 313 313 312 311 310 309 308 307 307 306 305 304 303 303 302 305 306 306 306 307
319 318 318 318 318 318 317 316 316 315 314 313 312 311 310 309 308 308 307 307 306 304 302 301 302 303 304 305 305 302 302 301
318 318 318 318 317 317 317 316 315 314 312 312 311 310 310 309 308 308 307 306 303 302 301 301 303 303 301 301 300 300 300 299
317 317 317 317 316 315 314 315 314 312 311 310 310 310 310 308 307 307 306 304 301 301 301 301 300 299 299 299 299 299 297 297
317 317 316 315 314 314 313 312 311 310 310 309 309 307 307 306 305 304 302 301 300 300 299 297 298 298 298 297 296 296 296 296
317 316 315 314 314 313 312 310 310 309 308 305 303 302 303 303 302 302 301 300 299 298 297 297 295 295 295 295 293 295 294 294
316 315 314 314 313 311 310 309 308 305 302 301 300 301 301 301 301 301 300 299 297 297 297 296 295 295 295 295 295 294 294 293
315 314 314 313 312 310 308 307 303 301 300 300 300 301 300 301 300 299 297 298 297 297 296 296 296 295 294 294 293 293 292 292
314 313 313 312 310 309 307 303 300 300 300 300 300 300 300 299 297 299 296 296 296 295 295 294 294 293 292 292 291 291 291 291
313 313 312 310 308 307 304 301 300 299 300 300 299 299 299 296 297 296 295 295 295 294 293 293 292 291 291 290 290 290 289 289
312 310 308 307 306 305 302 301 299 299 299 299 299 298 297 295 295 295 295 294 293 293 292 291 290 290 290 289 289 288 288 287
310 307 305 304 304 303 302 300 299 298 298 298 298 297 296 295 295 294 294 293 293 291 290 290 289 289 289 288 288 287 287 286
306 305 304 304 304 302 301 300 299 298 297 297 297 297 295 294 294 294 293 292 290 290 289 289 289 288 288 287 287 286 285 284
304 303 303 304 302 301 301 301 299 298 297 296 296 296 294 294 294 293 292 290 289 289 288 288 288 287 286 286 286 284 283 282

GFSFLT1_850_thetae_033.txt.gz
Theta_e
325 326 326 327 328 329 329 330 330 330 328 326 324 322 321 321 320 319 318 317 316 315 315 314 314 313 313 313 312 312 313 312
323 323 323 324 325 325 326 328 327 327 324 323 321 321 319 318 316 316 316 316 315 315 315 314 312 311 309 308 308 307 306 306
320 322 323 324 323 322 323 323 325 321 318 318 318 318 316 316 315 316 316 316 315 314 312 311 309 307 306 306 306 306 304 302
320 319 318 318 317 317 316 316 316 315 316 316 316 316 316 316 316 315 313 311 311 310 308 308 306 305 305 305 304 302 302 305
320 319 318 317 317 317 316 316 316 316 315 315 314 313 313 314 313 311 310 310 309 308 307 306 305 304 302 300 302 304 306 306
319 319 318 318 317 317 316 316 316 315 315 314 313 312 311 310 309 309 308 308 307 307 307 306 302 299 302 303 304 304 302 301
318 318 318 318 317 317 317 316 316 314 312 312 312 311 310 310 309 308 308 308 307 306 304 301 300 300 302 302 300 299 299 299
318 318 318 317 317 317 315 315 315 314 312 311 310 310 310 309 308 307 307 306 305 304 300 299 299 299 298 298 298 298 298 297
317 317 317 317 316 314 314 313 312 311 310 310 309 308 306 305 305 305 304 303 303 301 300 299 298 296 297 297 297 296 295 295
317 317 316 315 314 314 312 312 311 310 310 309 308 304 303 302 302 302 302 302 301 300 299 297 297 295 295 295 294 294 294 293
317 316 315 314 314 313 312 311 309 309 308 307 305 302 300 299 301 301 301 301 300 299 297 296 296 296 295 295 295 294 294 293
315 314 314 314 313 312 310 309 308 307 304 303 301 299 300 300 300 300 300 297 297 297 296 296 296 295 294 294 294 293 293 293
314 314 313 312 311 309 308 308 307 303 303 301 299 300 299 299 299 300 297 296 295 296 296 295 294 293 293 292 291 291 291 291
313 312 311 310 309 307 307 305 303 302 301 299 299 299 299 299 299 297 294 294 294 294 294 293 292 292 291 290 290 290 290 290
313 312 311 310 307 306 305 303 302 301 300 299 298 298 299 298 297 295 293 294 294 294 293 292 291 290 290 290 289 289 288 288
309 307 307 305 304 304 304 302 302 301 299 298 298 298 298 298 297 295 294 293 293 293 292 290 290 289 289 289 289 288 287 287
306 305 304 303 303 303 303 302 301 300 300 299 298 297 298 298 297 293 293 293 293 292 290 289 289 288 288 288 287 286 286 286
305 303 302 302 301 301 302 301 301 301 300 299 298 297 296 296 294 293 293 292 291 290 289 289 288 288 288 287 286 285 284 283
301 301 301 301 301 300 299 298 297 297 297 297 298 297 296 295 294 294 293 292 290 289 288 288 288 287 287 286 284 284 283 283

GFSFLT1_850_thetae_036.txt.gz
Theta_e
326 326 326 327 328 329 330 329 328 328 327 325 325 323 322 321 320 319 319 319 317 316 315 315 315 315 314 313 310 308 306 305
325 326 326 327 328 329 328 328 328 327 325 324 322 318 316 316 316 316 316 315 315 315 314 314 314 313 310 308 307 305 304 303
322 323 324 324 322 322 321 318 317 317 318 318 318 318 317 316 316 315 314 314 313 313 313 312 310 308 307 306 305 304 302 299
318 318 319 318 317 316 316 315 315 315 315 315 315 315 314 314 314 314 313 311 310 309 308 307 306 306 306 304 302 299 299 303
317 317 317 316 316 315 315 315 315 315 315 314 312 311 311 311 311 311 310 309 309 308 308 307 307 304 299 298 300 303 302 301
318 318 318 317 317 317 316 315 315 315 315 314 312 312 311 311 310 309 309 308 308 308 306 304 301 298 297 299 299 299 298 298
318 318 317 317 317 317 316 316 315 314 314 313 311 311 310 310 310 310 308 307 306 305 303 301 300 299 297 296 297 298 298 297
318 318 317 317 317 317 316 315 314 313 312 311 310 310 309 308 307 305 304 304 303 302 301 300 300 298 296 296 295 296 296 295
317 317 317 317 316 316 314 314 313 312 311 310 309 308 306 304 302 301 301 301 301 301 300 299 297 296 296 295 295 294 294 293
317 316 316 315 314 314 313 312 311 310 309 309 308 305 302 301 299 299 300 301 300 297 296 296 296 296 295 295 295 294 294 293
316 315 314 314 313 312 311 310 309 309 309 307 304 302 300 298 298 299 299 299 298 295 297 296 295 295 295 294 294 294 293 293
313 313 312 311 311 310 309 308 308 307 305 303 303 301 298 297 297 298 298 299 298 293 294 295 295 294 293 292 292 291 291 291
312 312 312 311 310 308 307 306 305 303 304 302 300 299 298 297 297 297 298 298 297 293 293 293 293 293 291 291 290 290 290 290
312 311 310 309 309 307 305 304 303 302 302 301 300 299 298 297 298 298 298 297 293 293 292 293 293 291 290 290 289 289 289 288
309 308 307 305 304 303 304 304 303 302 301 300 300 299 298 297 298 298 297 296 293 293 293 293 292 291 289 289 288 288 288 287
306 305 303 303 301 300 300 301 302 302 301 300 300 299 298 298 297 297 296 295 293 293 293 291 290 289 288 288 288 288 287 286
303 302 301 301 301 302 302 301 300 299 298 298 299 297 298 297 296 296 296 294 293 292 291 290 289 288 288 288 287 286 285 284
301 301 301 300 300 299 297 296 295 295 295 295 295 294 294 295 295 295 294 294 291 290 290 289 288 288 287 287 285 284 284 283
301 300 298 297 296 295 295 294 294 294 294 294 294 294 293 293 293 293 293 292 291 290 289 288 288 287 287 285 284 284 283 282

GFSFLT1_850_thetae_039.txt.gz
Theta_e
325 325 325 325 326 329 329 328 328 327 327 325 324 322 322 321 320 320 320 320 319 318 316 316 315 315 314 312 311 309 307 306
327 327 326 326 328 329 329 328 327 325 325 325 323 322 319 317 316 316 316 316 315 315 315 314 312 311 309 308 307 306 306 305
323 323 326 327 326 324 320 318 317 318 318 318 318 316 315 315 315 315 315 314 313 311 309 308 308 307 307 306 305 303 300 298
321 322 320 319 317 316 315 315 315 315 315 315 314 312 310 310 309 308 309 310 310 310 309 308 307 307 305 300 297 296 296 297
317 316 316 315 315 315 315 314 314 313 311 310 310 310 310 310 309 309 310 309 309 308 308 306 304 302 300 297 297 295 296 298
317 317 317 317 317 316 316 315 313 313 312 312 312 311 310 310 309 309 309 309 307 305 304 302 301 300 299 299 296 296 298 298
318 317 317 317 317 316 316 316 315 313 313 312 311 311 310 310 309 308 307 304 302 302 301 301 300 299 298 296 295 295 295 295
318 317 317 317 317 316 316 315 314 313 312 312 311 310 309 307 304 302 300 299 300 300 300 299 295 295 295 295 295 295 294 294
318 318 317 317 317 315 313 313 313 312 311 310 309 308 305 303 302 299 297 298 299 299 298 296 294 295 295 294 294 295 294 294
318 318 317 316 314 313 313 312 311 310 309 308 306 303 303 302 298 297 297 297 298 298 298 294 295 296 295 295 294 294 293 293
315 316 314 313 312 312 311 310 309 308 307 305 303 301 299 299 298 297 297 297 297 298 297 295 293 294 294 293 293 292 291 291
314 313 314 313 311 311 308 307 306 305 303 303 301 300 300 299 298 298 298 298 298 298 297 293 292 293 293 292 291 290 290 289
312 311 311 310 310 308 305 304 303 303 302 302 301 300 300 298 298 298 298 298 298 296 293 293 293 293 292 291 290 289 289 289
311 310 308 306 304 303 303 304 303 302 301 301 300 300 298 298 298 298 297 297 296 296 294 292 293 291 291 290 289 288 288 288
307 306 304 302 301 300 301 301 302 302 302 301 299 298 299 297 297 296 295 296 295 295 293 293 292 291 289 288 288 287 287 287
303 302 301 301 301 301 301 300 299 298 296 295 295 294 295 296 294 294 295 294 295 294 293 292 290 289 288 288 287 287 287 285
301 301 301 300 299 298 297 296 295 295 294 293 294 294 293 293 293 293 293 293 294 294 293 290 290 288 288 287 287 286 285 284
301 301 299 296 296 295 295 294 294 294 293 294 293 293 293 292 292 291 292 293 293 292 291 290 288 288 287 287 286 284 283 283
300 297 296 295 295 294 294 294 293 293 293 293 293 293 293 292 290 291 293 293 291 290 288 288 288 287 287 286 284 283 282 281

GFSFLT1_850_thetae_042.txt.gz
Theta_e
326 326 326 326 325 325 329 328 326 322 324 325 324 322 320 320 320 319 319 319 319 317 316 315 312 311 310 309 308 307 306 305
324 325 324 324 325 328 328 328 326 325 324 322 318 320 318 315 313 312 313 314 315 313 312 310 309 308 308 307 306 305 302 298
326 327 328 328 328 327 324 320 319 319 319 318 316 315 311 310 310 309 309 309 308 309 309 309 308 308 307 304 301 299 297 295
322 323 322 319 317 315 314 314 315 314 313 312 311 310 310 311 310 309 309 308 308 309 309 308 307 303 302 300 298 297 296 295
319 317 315 315 315 315 315 313 312 311 311 311 311 311 311 311 310 309 309 309 308 308 305 303 301 300 299 297 295 295 295 295
316 316 316 316 316 316 316 315 315 313 312 312 312 311 310 310 309 309 308 306 304 302 301 300 299 298 296 294 294 295 295 295
317 317 317 316 316 316 316 316 315 314 313 312 311 310 309 309 307 305 302 300 298 298 298 298 297 296 293 294 294 294 294 294
317 317 316 316 317 316 316 315 314 313 311 310 310 308 306 304 302 300 297 297 296 296 296 297 297 296 293 293 293 293 294 294
317 317 317 317 316 316 315 313 312 311 310 308 306 304 302 300 299 298 297 297 297 297 297 297 297 296 293 294 294 294 294 293
317 317 317 317 316 313 312 311 310 309 307 305 303 302 301 300 300 299 298 298 298 297 298 297 296 294 294 295 294 293 292 291
315 315 315 313 313 312 311 309 307 306 304 303 302 301 300 300 299 299 298 298 298 298 297 295 295 293 294 293 293 292 291 290
314 313 313 312 310 310 309 308 306 304 304 302 301 300 299 299 298 298 298 297 298 298 297 296 295 294 293 292 292 291 290 289
311 310 310 310 309 306 305 304 304 303 302 301 301 301 299 299 298 298 297 297 296 297 296 295 295 293 292 292 290 289 288 288
309 309 308 306 304 303 302 301 301 301 301 301 298 296 294 294 296 295 294 294 295 295 295 295 295 293 292 291 289 288 287 287
307 305 303 302 301 301 301 301 300 298 296 295 294 293 293 293 293 293 292 292 293 294 295 294 294 292 291 289 288 288 287 287
303 302 301 301 300 300 298 297 295 295 294 293 293 293 293 293 292 292 291 291 293 293 294 293 293 291 289 289 287 287 287 286
301 301 301 299 297 296 295 295 295 294 293 292 293 293 293 292 292 292 290 291 293 293 292 291 290 289 288 287 287 287 286 284
301 301 298 296 295 295 294 294 293 292 292 292 292 292 292 292 292 291 290 291 292 291 290 289 289 288 287 287 287 285 284 283
301 298 296 295 295 294 294 293 291 291 291 291 292 292 292 292 292 291 290 290 289 289 289 288 288 288 287 286 285 284 283 282

GFSFLT1_850_thetae_045.txt.gz
Theta_e
325 325 325 325 324 323 324 326 328 325 325 321 320 323 320 318 315 314 313 313 313 314 313 312 310 309 309 308 308 307 304 301
325 325 325 324 324 325 326 327 324 325 325 322 318 317 313 310 309 309 309 309 309 308 308 308 309 309 308 306 302 300 298 297
326 326 327 327 327 327 326 323 324 322 319 317 316 313 310 310 311 310 310 309 308 308 308 308 308 305 302 300 298 297 296 295
322 323 322 317 315 314 314 314 313 313 314 313 311 310 311 311 311 310 309 308 308 307 306 304 302 299 298 297 296 295 294 294
320 316 314 314 314 313 312 312 312 312 311 311 311 311 311 311 310 309 308 308 306 303 301 298 297 296 296 296 295 293 293 296
315 315 315 315 315 315 315 314 313 313 312 312 312 311 310 309 309 307 305 303 300 297 296 296 296 295 296 296 293 292 293 294
315 316 316 316 315 315 315 315 315 314 313 312 311 309 307 305 304 302 300 298 297 297 297 297 296 296 296 296 293 293 293 293
316 316 316 316 316 315 315 315 314 313 311 310 309 306 304 303 301 300 299 298 297 298 297 297 297 297 296 294 293 294 294 294
316 316 316 316 316 315 315 314 312 311 310 308 306 304 303 301 300 299 299 299 299 298 298 298 298 297 295 295 293 293 293 293
317 316 316 316 316 315 313 312 310 308 306 305 304 302 301 300 299 299 298 298 298 298 298 298 298 296 295 294 293 293 292 292
316 316 316 316 314 312 310 308 307 305 305 304 302 301 300 300 299 299 298 297 297 297 297 297 297 296 295 294 293 292 292 291
313 313 312 310 309 308 308 306 305 304 303 302 301 301 301 300 297 296 298 297 296 295 294 296 297 295 295 293 293 292 290 289
310 309 308 308 308 306 305 304 302 301 300 300 300 298 295 294 293 293 293 292 292 292 293 296 295 295 294 293 292 290 289 288
308 308 308 307 304 302 302 302 300 300 299 297 296 295 292 292 293 293 292 291 291 291 292 295 295 294 293 293 290 289 288 288
308 307 305 303 302 301 301 300 298 296 296 295 293 292 293 293 292 292 291 291 290 290 291 293 293 292 292 291 289 289 288 287
305 303 302 301 300 300 297 296 296 296 294 292 292 292 292 292 292 291 291 291 290 290 292 292 291 291 291 289 289 288 287 287
302 301 301 300 298 296 296 295 295 293 291 291 291 291 291 291 291 291 291 291 290 291 291 290 289 289 289 288 287 287 287 285
301 301 300 297 296 296 295 294 293 291 290 290 290 290 291 291 292 292 291 291 290 289 289 289 288 288 288 287 287 286 284 283
301 301 297 296 296 295 294 292 291 290 290 289 290 290 290 291 292 291 291 291 290 290 289 289 288 288 288 287 286 284 283 283

GFSFLT1_850_thetae_048.txt.gz
Theta_e
325 324 324 324 325 326 325 325 327 327 325 320 316 319 322 317 311 310 309 309 309 309 308 308 308 309 309 307 305 305 304 303
326 326 325 325 324 324 324 325 327 323 320 321 321 320 315 310 310 310 311 310 310 309 309 308 307 307 305 303 302 302 301 302
327 329 329 329 328 327 327 325 324 323 322 320 318 316 312 312 311 311 311 310 309 308 308 307 305 304 303 302 301 300 300 300
327 328 328 328 327 326 325 324 321 318 317 315 314 311 310 311 311 311 310 309 308 308 305 302 301 300 301 300 300 300 299 299
323 320 320 321 322 322 320 320 318 311 312 315 314 314 314 313 312 310 309 308 305 303 300 298 299 300 300 299 298 299 299 298
318 318 318 317 315 317 316 316 315 313 312 314 314 313 312 312 311 308 306 305 301 298 298 299 301 301 300 300 299 299 298 297
318 318 317 317 315 314 314 314 313 313 313 313 312 311 310 307 306 305 304 303 302 302 301 301 301 301 300 299 299 298 297 297
318 318 317 317 316 315 315 315 314 314 313 311 309 307 305 305 304 303 302 301 301 301 301 301 300 299 300 299 298 297 296 296
319 318 318 317 317 316 315 315 313 312 310 308 305 304 304 304 303 302 301 301 301 301 300 300 300 299 299 298 297 297 296 296
319 319 318 318 317 316 315 313 310 309 308 307 305 303 302 302 301 302 302 302 300 300 300 300 299 298 298 298 297 296 296 295
319 319 318 317 315 314 313 310 309 307 305 304 303 302 302 301 300 300 299 298 298 298 298 297 297 297 297 296 296 295 295 294
317 316 314 313 311 309 309 306 305 304 303 302 301 301 299 298 298 297 296 295 295 294 294 295 296 296 296 296 295 294 294 293
314 312 310 309 308 307 307 304 304 305 302 299 298 298 297 296 295 295 295 294 294 294 294 295 295 295 295 294 293 292 292 292
311 310 309 308 307 304 303 303 303 299 297 297 297 296 295 295 295 295 294 294 294 294 294 294 294 294 293 293 292 291 290 290
311 309 308 305 303 302 302 301 298 297 297 296 295 295 295 295 294 294 294 294 294 294 294 293 292 292 292 291 291 290 290 289
310 308 306 304 302 301 301 297 296 296 295 294 294 295 295 295 294 294 294 294 293 293 292 291 291 290 290 290 290 289 289 288
308 306 304 303 300 299 297 296 296 294 292 293 294 294 294 294 294 294 294 293 293 293 292 292 291 291 289 288 288 288 288 286
307 304 302 300 298 297 296 296 294 292 292 292 292 292 293 293 293 293 293 293 293 292 292 292 291 290 288 288 288 286 286 285
305 303 300 298 297 296 296 294 292 291 290 290 290 291 291 292 293 293 293 292 292 291 291 291 290 289 288 288 286 285 285 284

GFSFLT1_850_thetae_054.txt.gz
Theta_e
325 324 324 324 328 332 332 330 327 328 325 324 324 323 323 321 318 317 310 311 312 312 313 313 312 311 310 308 306 304 302 302
328 328 328 328 327 330 332 330 328 327 326 325 324 321 321 318 318 316 312 313 313 312 312 311 310 309 307 306 305 303 302 302
330 331 331 330 331 332 330 329 328 326 324 325 324 321 319 316 315 312 313 312 312 312 311 309 307 305 302 303 303 302 301 301
332 333 333 333 332 332 330 327 325 325 325 323 321 317 316 315 315 315 314 313 312 311 309 307 303 301 302 303 303 302 302 300
332 333 332 332 330 329 328 327 326 325 322 320 319 317 316 315 316 315 314 313 311 310 307 304 303 304 304 303 303 302 301 301
331 333 330 330 329 329 327 324 324 322 319 318 317 317 317 317 315 314 313 310 308 306 305 304 304 304 303 303 302 302 302 301
328 329 328 327 326 324 324 323 321 320 319 318 318 318 316 315 313 311 309 308 306 304 304 304 303 303 302 301 301 301 301 299
324 324 323 323 323 322 321 320 319 318 318 318 318 317 316 312 309 308 307 306 304 303 303 303 303 302 301 300 301 301 300 297
322 321 321 322 321 321 319 319 318 318 317 315 313 312 309 309 308 307 306 304 304 303 303 302 301 300 300 299 299 299 299 298
322 321 321 322 321 321 320 319 318 317 315 312 310 309 310 309 306 305 304 303 302 300 299 298 297 297 296 296 297 297 298 298
322 321 321 322 321 321 320 319 317 315 313 310 308 309 307 305 304 303 301 301 299 298 297 296 296 296 296 296 296 296 297 296
322 322 322 322 321 320 320 319 315 312 308 307 307 307 306 303 301 300 299 298 297 297 296 296 296 296 296 296 296 296 295 295
323 323 322 322 321 319 318 315 310 308 307 308 309 304 301 300 300 298 298 297 297 296 296 296 296 296 296 295 296 295 294 294
323 323 322 321 320 317 314 311 308 307 307 302 301 300 300 298 298 298 297 297 296 296 296 296 295 295 295 292 292 292 292 291
323 322 321 318 317 314 311 309 308 305 302 301 300 298 297 298 298 297 297 296 296 296 295 295 295 294 293 292 292 291 291 290
322 320 318 316 314 311 309 306 304 302 300 299 298 297 297 297 296 296 296 296 296 295 295 295 295 293 293 292 292 291 290 291
320 318 317 315 312 310 306 304 302 300 299 297 296 295 295 294 294 294 294 295 295 295 295 295 294 292 293 293 292 291 289 289
318 317 316 313 311 308 305 302 300 298 297 295 295 294 293 294 294 294 294 294 295 295 295 294 292 292 291 290 292 290 289 288
317 316 314 311 308 304 301 300 298 296 295 294 294 294 293 293 293 294 294 295 295 294 294 293 291 291 291 291 290 289 288 286

GFSFLT1_850_thetae_057.txt.gz
Theta_e
323 324 325 327 330 329 329 329 328 328 325 324 323 324 324 321 318 318 315 311 312 312 312 311 311 310 309 306 303 302 301 301
322 324 326 328 330 331 330 329 329 329 327 325 324 324 323 323 320 316 314 312 312 311 311 310 309 308 306 302 302 302 301 300
326 326 327 329 328 331 331 330 329 327 326 325 321 321 319 317 316 314 312 313 312 312 311 310 309 306 302 300 300 300 300 301
328 329 328 331 330 331 331 330 329 325 323 324 322 319 316 315 315 314 313 314 314 313 311 309 305 303 302 301 301 301 302 302
330 331 331 332 332 332 330 329 324 325 325 324 319 316 316 315 315 315 315 314 314 312 309 305 303 303 303 303 303 302 302 302
331 332 332 332 332 330 328 322 325 325 322 320 319 317 316 316 316 315 314 312 309 307 306 304 304 304 304 303 302 302 301 301
332 333 332 328 327 328 326 324 325 321 319 319 318 318 316 316 315 313 311 309 307 306 304 304 303 303 303 302 301 300 300 300
331 331 329 327 328 328 327 325 322 321 319 318 317 317 316 315 314 312 310 309 307 306 304 303 303 303 302 300 300 300 299 298
328 329 328 327 325 324 323 322 321 320 319 318 318 318 316 314 311 309 308 307 307 305 303 303 302 300 299 296 296 296 296 297
326 325 325 324 324 323 322 320 319 318 318 317 317 316 313 309 309 309 310 306 303 303 303 299 296 295 295 295 295 296 296 296
323 322 322 321 321 320 319 319 318 318 318 317 315 312 309 309 310 310 304 301 301 300 297 296 296 295 295 296 296 296 296 296
322 321 321 321 321 321 320 319 319 318 316 314 312 308 309 306 303 303 301 300 299 298 297 296 295 295 295 295 295 295 295 295
322 321 321 322 321 321 320 319 317 316 314 311 308 307 303 301 301 300 298 298 297 297 296 296 295 295 295 295 295 293 291 291
322 322 322 322 321 321 319 318 315 311 309 308 304 301 301 300 299 298 298 298 297 296 296 295 295 295 295 295 295 292 291 290
323 323 322 322 320 319 318 316 311 309 307 302 300 300 300 298 298 298 297 296 296 296 296 295 295 295 295 295 293 292 291 290
323 323 321 320 318 316 314 312 310 308 302 300 300 298 297 297 296 295 294 294 294 295 295 295 295 295 295 293 292 292 291 290
322 321 319 317 316 314 312 310 308 302 300 299 298 297 295 293 293 293 292 292 294 294 295 295 295 295 294 291 291 291 291 291
320 319 318 316 315 313 310 306 303 301 299 297 295 294 294 294 294 292 292 294 294 294 295 294 294 293 293 290 290 290 290 289
318 318 316 313 311 309 305 303 300 299 297 295 296 295 295 294 293 293 293 294 294 294 293 293 293 292 292 290 291 290 289 288

GFSFLT1_850_thetae_060.txt.gz
Theta_e
324 328 327 324 326 318 316 320 323 328 327 327 327 326 324 321 321 317 314 312 312 312 312 311 310 309 308 305 301 300 300 300
324 325 324 324 328 324 319 323 326 328 327 326 326 323 323 323 320 314 312 313 312 312 312 311 310 308 304 301 301 300 299 299
326 324 324 327 328 328 327 328 328 328 328 325 323 324 323 322 319 315 314 313 312 313 312 311 308 305 303 302 301 300 299 300
323 325 325 328 329 329 329 329 329 329 328 326 323 322 320 317 316 314 312 312 313 314 313 309 308 306 303 302 302 302 302 302
327 327 327 328 330 330 330 329 329 328 326 323 319 316 316 316 315 314 314 315 315 314 311 310 308 306 303 303 303 302 302 301
326 326 327 329 330 330 331 330 327 325 324 322 322 316 316 315 315 315 315 315 312 309 308 307 305 304 303 303 303 302 301 299
328 328 329 330 331 331 330 325 324 325 325 323 320 317 316 315 315 315 314 311 310 308 307 304 304 303 303 303 302 300 298 299
330 331 331 331 330 329 324 325 326 325 321 321 320 317 316 316 315 315 313 310 307 305 306 305 303 303 302 300 298 296 295 295
331 332 331 329 327 327 324 325 326 320 319 319 318 317 316 315 313 309 307 307 308 311 308 304 302 302 298 295 293 293 293 294
332 332 329 326 326 327 326 327 322 320 319 318 317 317 316 315 312 310 309 309 308 304 303 301 300 296 294 293 292 293 294 295
331 330 329 327 326 324 322 321 321 320 320 318 318 317 316 311 309 310 310 307 303 300 300 298 296 296 294 293 293 294 295 295
328 328 327 326 325 324 323 322 321 319 318 318 317 316 311 308 309 308 308 301 300 299 298 297 297 295 295 293 294 294 294 294
325 325 325 324 322 321 320 320 319 319 318 316 313 311 309 308 302 304 301 299 298 298 297 297 296 295 294 295 295 295 295 294
324 323 323 322 321 321 321 320 319 317 314 311 310 311 304 300 301 300 298 298 297 297 295 295 296 295 294 295 295 295 294 292
323 322 321 321 321 321 320 318 316 313 311 311 304 301 300 301 299 298 297 296 294 295 294 295 295 295 295 295 295 294 292 292
323 321 321 321 320 320 318 316 314 312 308 303 301 300 300 299 298 295 294 296 297 293 293 294 295 295 295 295 294 293 291 291
322 321 321 321 320 320 319 317 311 307 305 302 299 298 299 297 295 296 299 297 293 292 293 294 294 294 294 293 293 291 290 290
321 322 322 321 320 318 314 310 308 305 302 299 298 296 295 296 300 298 294 292 292 293 294 294 293 293 293 292 292 291 289 290
322 321 320 318 315 311 309 306 304 302 299 297 296 297 299 299 294 293 292 292 292 292 292 291 291 291 292 291 291 290 289 290

GFSFLT1_850_thetae_063.txt.gz
Theta_e
325 323 326 327 329 328 328 325 322 322 324 325 326 327 327 323 320 319 317 314 312 311 311 311 311 310 309 305 303 301 299 299
324 327 327 328 328 327 323 317 319 323 325 327 327 327 325 321 320 318 314 313 312 312 312 312 312 309 306 304 303 301 300 300
322 326 327 327 327 324 319 316 319 325 327 327 326 326 324 322 320 317 316 314 313 312 313 313 310 308 306 305 303 302 301 301
321 324 328 328 327 325 318 317 321 324 327 327 326 324 322 322 320 318 316 314 312 312 313 310 308 306 305 305 303 302 302 302
322 324 326 324 324 326 326 323 324 326 328 327 326 324 324 322 319 316 313 313 313 313 310 308 307 305 305 305 303 302 302 302
324 323 323 324 323 325 328 328 328 328 328 327 325 322 318 316 316 314 314 314 313 310 308 306 306 305 305 304 303 302 301 299
323 323 323 323 324 326 328 328 328 328 328 327 324 321 316 315 315 314 314 313 312 310 308 306 307 310 306 303 302 300 297 295
323 323 324 324 326 328 328 328 328 328 327 324 323 322 317 316 315 315 314 313 311 309 305 309 309 304 302 301 298 294 293 292
326 327 327 328 329 328 328 328 326 324 324 324 322 320 318 316 315 315 314 311 311 308 310 308 303 302 299 296 294 293 292 293
326 328 328 330 330 328 327 324 324 325 325 323 320 321 318 316 315 311 311 308 309 308 304 301 300 298 297 296 294 293 293 294
327 328 329 330 329 327 325 323 324 325 322 320 319 318 316 314 313 310 310 309 306 301 300 299 298 297 296 294 294 293 294 294
328 329 330 330 328 325 325 325 325 324 320 318 318 317 315 312 309 309 310 309 301 300 298 298 297 296 294 295 293 293 294 295
329 330 331 329 327 326 325 325 324 322 320 319 317 315 312 309 309 312 303 301 299 298 297 297 295 295 295 294 294 294 295 295
330 331 329 328 327 324 323 322 321 319 317 313 310 309 309 311 307 302 303 299 298 297 294 296 296 294 294 294 295 295 295 294
328 328 328 328 325 322 321 320 318 317 314 312 311 311 312 310 302 301 298 297 294 295 296 295 293 293 294 294 295 295 294 293
325 324 325 326 325 323 320 319 318 318 314 314 313 311 305 301 299 298 295 295 297 297 297 293 292 293 293 294 294 293 293 292
324 322 322 323 323 321 319 318 317 314 314 312 308 302 300 297 295 296 297 299 299 294 292 291 292 292 292 292 293 292 292 291
323 322 321 320 320 319 319 317 314 313 308 303 299 297 295 295 298 300 300 295 292 291 291 291 291 291 290 290 291 291 291 290
320 320 320 319 319 317 316 314 311 304 301 298 296 297 299 299 299 297 294 291 291 291 291 291 290 290 290 290 291 291 290 289

GFSFLT1_850_thetae_066.txt.gz
Theta_e
322 323 323 323 325 326 327 328 326 321 322 324 324 326 326 327 327 321 318 318 318 317 312 311 311 311 310 308 306 304 301 300
325 323 324 325 326 328 328 329 326 323 323 324 323 325 327 326 322 319 319 317 314 311 311 311 312 311 309 307 305 303 302 301
326 324 323 323 326 328 328 327 326 323 322 323 324 326 326 324 321 320 316 313 312 312 312 313 310 307 307 306 305 304 302 302
324 324 325 324 324 324 325 325 322 321 320 324 326 326 325 321 321 319 316 314 312 312 312 310 307 307 306 306 306 304 302 302
322 320 323 322 322 324 325 325 321 320 321 324 326 326 324 323 322 320 317 314 312 312 312 308 308 307 308 308 305 303 302 301
324 321 322 323 324 325 326 325 321 320 321 325 326 325 324 323 322 319 315 313 313 312 312 309 308 307 309 309 303 302 300 296
325 323 322 323 324 327 326 325 323 319 323 326 326 325 324 320 319 316 314 313 313 313 311 311 309 308 310 307 302 300 295 293
326 323 322 322 324 325 324 324 325 325 325 327 326 324 323 318 315 315 314 314 314 313 311 306 306 309 305 302 298 295 294 292
325 325 323 323 323 324 324 324 325 326 326 327 326 325 322 320 316 315 314 314 313 312 309 308 309 302 300 297 296 295 293 292
324 323 323 323 323 324 325 326 327 327 327 327 325 323 321 319 317 316 315 314 312 309 310 309 303 299 297 297 296 294 293 293
322 322 322 322 323 326 327 328 327 328 326 324 323 321 320 320 319 316 315 312 309 310 310 302 299 297 297 296 295 295 293 294
323 323 323 323 325 327 328 325 324 323 322 323 322 321 320 321 318 315 313 309 311 308 303 298 297 297 295 295 295 294 294 294
325 325 324 326 328 327 327 324 323 323 323 324 322 320 318 316 311 308 309 310 307 302 298 298 297 295 295 294 294 294 294 294
326 327 327 327 329 329 326 325 324 324 324 321 318 315 311 310 308 311 309 304 299 298 297 295 294 295 294 293 294 294 294 295
327 328 328 328 330 329 326 325 324 325 320 317 316 313 312 310 311 306 302 299 298 296 294 295 296 294 292 292 292 293 294 294
325 328 329 329 329 327 325 324 324 321 316 314 311 311 310 309 302 299 298 297 295 296 299 296 293 291 291 291 290 291 292 292
323 325 327 327 327 325 322 321 318 315 314 312 311 309 306 300 297 297 296 298 300 299 293 291 291 291 291 290 290 290 290 291
321 322 322 323 323 322 319 317 316 315 312 311 308 302 299 297 296 297 299 300 299 292 291 291 291 290 290 290 290 290 290 290
320 320 320 319 320 320 318 316 314 312 310 306 300 296 297 299 299 299 299 296 293 291 290 290 290 289 289 289 289 290 290 290

GFSFLT1_850_thetae_069.txt.gz
Theta_e
323 320 320 321 321 322 326 328 326 320 316 318 323 324 324 323 324 325 324 322 318 319 320 314 310 311 311 310 309 308 305 302
322 323 322 320 320 323 326 328 328 324 317 322 324 325 324 324 324 325 321 318 318 318 312 311 311 312 310 309 309 308 305 303
323 322 323 322 322 323 325 327 327 327 322 321 323 323 324 325 324 320 318 318 316 312 311 311 312 311 309 308 307 306 305 304
325 324 322 323 324 325 326 328 327 327 325 322 323 324 325 325 321 319 319 316 313 312 312 312 312 309 308 308 308 308 306 303
325 325 325 325 323 323 326 327 327 325 325 323 322 324 325 324 323 321 320 315 313 312 312 312 310 308 306 309 308 306 304 301
327 325 323 324 325 324 324 326 327 326 324 323 322 325 325 324 322 320 318 315 313 312 312 312 309 308 308 309 308 304 301 298
328 326 323 321 321 324 325 325 326 326 325 322 320 325 325 324 322 320 318 315 314 313 313 312 308 309 308 309 304 301 297 295
327 328 325 322 321 322 324 325 325 326 325 323 321 322 324 324 323 321 319 316 314 313 313 311 309 306 309 308 301 297 296 294
326 327 327 324 322 321 322 324 326 324 324 324 321 324 325 323 320 317 316 315 314 313 312 311 308 310 308 301 298 297 295 294
324 326 327 326 323 322 322 323 324 323 324 324 325 325 325 323 321 318 315 315 314 313 310 308 310 309 302 299 297 296 295 294
321 323 326 326 325 323 322 322 323 324 325 325 326 326 325 322 321 320 315 314 312 309 308 310 308 300 298 297 296 295 295 294
321 321 322 323 323 324 323 323 325 326 326 327 326 325 322 322 321 320 315 313 309 309 310 309 299 298 298 297 295 295 294 294
323 322 322 323 323 323 323 324 326 323 325 325 324 323 323 322 321 318 313 309 312 310 309 301 299 298 296 295 295 294 295 294
323 324 324 324 324 324 324 326 326 322 323 322 322 324 322 320 314 313 310 311 309 304 300 299 297 296 295 295 294 293 294 294
322 324 326 326 326 325 325 327 326 324 322 322 322 319 313 310 311 308 309 305 301 298 298 295 298 298 296 293 292 292 292 292
321 324 326 327 327 326 326 325 324 323 322 320 315 310 308 311 308 304 302 301 297 295 297 299 297 293 292 291 291 290 290 290
317 321 324 326 327 327 325 324 322 321 318 314 309 308 313 307 300 302 299 296 298 299 299 297 293 291 291 291 290 290 289 289
318 320 322 324 324 324 321 320 319 317 314 309 310 310 302 299 300 298 298 299 300 298 294 292 291 291 290 290 289 289 289 289
319 320 320 320 321 321 320 317 315 312 309 310 305 299 297 298 298 299 299 299 296 294 293 291 291 290 290 289 289 289 289 288

GFSFLT1_850_thetae_072.txt.gz
Theta_e
325 325 326 324 321 321 322 324 323 324 326 318 315 321 324 324 323 323 324 324 322 320 321 321 315 310 311 311 310 310 309 308
325 325 324 324 323 324 326 327 326 324 319 318 318 320 324 322 322 323 324 323 321 320 320 317 311 311 311 310 310 310 308 308
325 324 325 324 325 326 327 327 328 328 324 322 324 324 323 324 323 324 324 322 319 319 318 312 311 312 311 310 309 309 309 307
325 325 325 325 325 325 326 328 328 327 328 324 325 325 323 324 324 324 322 319 319 317 312 311 311 312 310 309 310 310 309 307
327 326 326 327 327 326 326 327 329 328 327 326 322 324 325 323 324 323 320 318 317 313 312 312 312 312 310 309 310 309 307 307
326 327 327 327 327 328 329 329 329 328 327 327 325 325 325 324 324 323 319 318 315 312 312 312 312 311 309 308 310 309 306 304
330 328 327 327 328 329 328 327 326 327 327 326 325 325 322 324 324 324 319 316 316 314 313 312 312 311 309 308 310 310 305 299
331 330 329 327 328 327 326 326 327 326 326 327 325 322 320 322 324 324 317 316 317 316 313 312 312 310 308 310 310 303 299 300
329 330 330 328 327 323 321 322 325 325 325 326 326 324 322 319 323 323 319 318 316 314 313 311 311 308 310 310 306 300 300 298
326 329 330 330 329 323 321 321 323 324 324 325 324 325 324 322 324 323 319 317 315 313 312 312 310 309 309 307 300 300 299 298
324 326 328 329 330 329 324 323 322 323 324 326 324 324 324 323 325 322 317 315 314 313 312 309 308 309 307 299 299 300 299 298
324 324 326 327 329 329 328 325 325 327 324 324 324 324 325 325 323 322 320 316 314 312 309 310 310 307 299 298 299 299 298 298
326 326 326 327 328 329 328 327 326 327 325 324 324 324 324 324 322 320 319 314 312 311 312 310 305 300 299 299 298 298 298 298
327 327 328 328 328 328 328 328 326 323 324 325 324 324 322 322 321 319 315 312 310 310 308 303 300 299 298 299 298 298 298 297
326 328 329 329 329 328 327 326 323 323 325 323 323 322 319 319 319 310 311 309 309 305 305 300 298 297 299 298 297 296 296 295
321 326 329 329 328 328 325 323 324 325 323 322 322 319 319 315 311 311 309 307 303 307 299 296 299 299 297 296 295 294 294 294
318 323 327 326 325 323 322 325 324 321 320 320 319 316 311 311 311 310 304 303 305 297 298 300 298 296 293 291 291 290 292 293
320 322 324 323 322 321 320 321 320 319 319 316 312 309 310 310 305 302 302 300 299 300 299 296 295 295 292 290 290 289 290 291
319 320 320 319 319 317 317 314 313 316 313 310 308 308 307 300 299 299 299 300 299 297 296 295 294 293 290 290 289 289 290 291

GFSFLT1_850_thetae_075.txt.gz
Theta_e
325 324 324 324 323 321 320 320 321 320 322 321 319 322 321 323 323 325 326 325 324 324 323 321 320 316 314 312 312 311 312 311
325 324 325 323 323 323 322 324 322 323 324 324 323 324 322 323 325 325 324 325 324 324 322 321 317 315 313 312 312 312 312 312
325 325 326 323 322 322 323 326 327 327 325 323 322 324 324 325 325 323 323 323 323 323 322 319 316 315 312 312 312 313 313 311
325 326 326 326 324 324 325 327 328 328 326 323 324 325 326 325 325 326 323 324 323 322 320 318 315 314 313 312 312 313 313 312
326 326 327 326 326 327 327 328 329 328 328 325 325 326 327 326 326 325 323 324 322 321 319 317 315 314 313 313 313 313 312 311
326 326 326 327 327 327 327 328 328 329 329 327 326 326 325 326 326 324 324 323 320 319 317 316 315 313 313 312 311 310 310 310
327 327 326 326 327 328 328 328 328 329 330 329 329 328 327 326 324 323 323 321 320 317 316 315 314 313 312 311 308 310 311 310
328 327 327 327 327 329 329 330 330 330 331 331 329 329 327 325 322 321 324 323 318 317 316 315 314 312 311 309 310 310 310 305
330 330 328 327 327 329 330 330 330 330 330 329 331 328 327 325 323 321 322 323 319 318 316 314 313 311 309 309 310 308 307 303
327 329 330 330 329 329 331 331 330 330 330 330 329 327 326 326 324 323 322 322 318 317 316 314 312 310 308 309 309 305 301 302
326 327 329 331 331 330 331 331 329 330 330 330 329 327 327 326 325 323 323 322 318 316 315 312 311 309 308 309 308 302 303 302
326 327 328 330 332 332 331 330 329 329 330 330 329 329 328 326 324 323 322 320 317 315 313 312 308 308 308 308 302 302 302 302
326 326 327 328 331 332 332 332 330 329 330 330 328 327 325 326 324 322 321 318 317 315 312 310 310 310 304 302 302 302 301 301
325 326 327 328 329 331 332 332 331 329 330 328 326 325 326 326 324 323 321 319 312 310 310 309 309 306 301 302 301 301 301 300
324 327 328 329 329 331 331 331 331 330 328 327 324 326 325 324 321 320 318 315 309 308 308 307 306 301 301 300 301 300 299 298
321 324 328 330 331 331 330 331 329 326 323 322 324 324 323 320 318 314 313 310 310 309 308 305 300 300 301 301 299 297 296 295
320 322 325 330 331 331 329 326 322 320 319 320 319 319 318 317 312 310 310 309 308 305 306 300 301 302 300 297 294 291 292 293
322 322 326 330 329 327 324 320 317 317 316 316 316 317 315 312 311 310 307 304 304 301 301 302 301 298 297 295 292 290 290 292
323 325 326 326 325 321 319 317 315 316 317 316 314 311 310 310 306 302 301 301 302 303 301 299 298 297 295 294 292 290 291 292

GFSFLT1_850_thetae_081.txt.gz
Theta_e
322 323 324 324 323 322 322 320 318 317 316 313 315 315 315 315 316 315 315 317 320 322 324 324 323 322 322 321 317 311 312 311
322 322 321 321 320 320 320 319 318 316 314 314 315 315 315 315 315 316 316 318 321 323 324 323 323 322 321 318 312 312 312 312
321 321 321 321 320 319 318 317 317 317 316 314 316 315 316 317 316 316 317 320 322 323 323 323 323 321 319 316 313 312 312 312
322 322 322 321 319 317 315 315 315 314 313 315 316 318 318 316 314 315 316 321 322 323 323 324 323 321 319 317 314 312 312 313
324 323 321 319 317 316 316 318 319 319 319 319 319 320 322 319 319 317 321 322 322 322 323 323 322 321 318 317 316 312 314 314
324 324 321 319 318 319 321 323 324 323 322 321 324 323 322 322 322 319 321 322 322 323 323 323 322 322 318 316 316 312 313 314
324 322 324 323 319 319 320 323 324 325 325 324 325 324 322 322 323 321 321 323 322 322 323 323 322 321 319 317 315 313 313 313
326 325 323 324 324 323 321 321 323 324 326 324 326 324 322 323 324 324 323 321 323 323 323 323 322 321 318 316 314 314 313 312
326 326 325 326 326 325 324 322 323 325 326 327 325 324 323 324 325 326 325 324 324 323 323 323 321 319 318 315 314 313 313 311
326 326 326 326 326 326 325 325 324 326 328 329 329 328 325 325 326 326 325 324 324 323 322 322 320 318 317 316 313 312 312 309
326 326 326 326 326 326 325 325 325 323 325 328 329 329 329 326 326 326 325 325 325 322 322 322 318 316 316 313 313 312 309 308
326 327 327 326 326 326 326 326 326 326 326 326 329 330 330 329 328 326 326 325 324 323 322 322 319 317 315 314 314 311 310 310
324 323 326 328 327 327 327 327 327 327 328 329 329 330 330 328 328 327 327 325 324 323 322 321 319 317 314 314 314 311 310 309
324 323 322 328 329 328 327 327 328 328 330 330 330 330 330 329 328 326 326 325 325 323 321 320 319 317 315 313 311 310 308 307
322 324 324 323 327 330 329 329 329 329 329 330 330 331 331 328 326 325 325 325 324 321 321 320 318 315 313 311 309 307 305 302
321 325 325 325 326 330 331 331 331 331 331 330 330 330 329 327 325 325 325 322 321 321 319 315 312 311 310 308 306 302 301 302
320 321 325 327 327 328 330 331 331 330 329 329 328 328 326 326 325 324 323 322 320 317 312 310 310 309 307 303 301 301 301 301
320 320 320 327 328 329 330 331 330 330 329 328 326 325 324 324 322 321 321 319 316 311 310 309 309 304 303 301 301 301 301 300
322 322 323 329 330 330 330 330 329 328 326 325 324 322 321 320 319 318 317 314 310 310 308 305 302 302 302 302 302 300 298 295

GFSFLT1_850_thetae_084.txt.gz
Theta_e
324 325 325 326 326 326 324 322 322 319 313 313 315 314 314 318 316 315 317 317 321 321 322 323 322 323 322 321 320 319 313 311
323 324 324 323 323 323 322 321 319 316 316 316 312 314 316 319 316 316 319 321 320 321 321 322 323 323 323 322 321 320 312 311
323 323 323 322 322 321 321 321 319 319 319 318 315 317 317 316 316 316 317 317 317 319 322 323 324 324 322 321 321 319 312 312
322 322 321 321 321 321 321 320 318 318 317 314 313 314 315 316 315 316 316 316 317 320 322 322 323 323 323 322 320 317 314 312
321 322 321 321 321 319 319 319 317 317 315 314 315 316 315 315 315 315 316 316 317 320 321 322 323 323 323 322 319 317 314 312
316 321 320 321 320 318 317 316 317 316 316 315 316 316 315 317 317 316 313 313 315 319 322 323 323 323 323 321 319 317 315 312
318 318 321 320 318 316 315 315 315 315 314 314 315 315 315 316 315 315 317 318 318 321 322 323 323 323 323 321 319 317 316 313
320 320 320 319 317 316 316 318 320 319 318 319 318 318 319 320 321 321 322 319 320 321 322 322 323 323 323 322 321 317 315 313
322 321 319 319 318 318 318 320 322 324 324 324 322 322 322 322 322 322 321 321 319 318 323 322 322 323 323 320 319 316 314 313
325 324 323 321 319 318 318 318 319 321 324 324 325 324 324 324 323 322 322 324 324 323 322 323 323 323 323 320 317 315 315 313
325 325 325 324 322 320 320 320 320 320 321 323 324 326 326 324 324 323 323 324 324 324 324 324 323 322 323 320 319 316 315 313
325 326 326 326 325 323 324 323 323 322 321 321 324 325 327 328 326 325 324 325 325 324 324 324 322 322 322 320 318 316 315 312
326 326 326 326 326 325 326 326 325 324 324 323 322 325 327 328 328 327 325 326 326 325 324 323 321 321 321 320 317 316 314 313
326 326 326 326 326 326 326 326 326 326 326 325 325 325 325 325 327 328 328 324 321 324 323 322 321 320 320 319 317 315 314 312
324 323 325 324 325 327 327 327 327 327 326 326 326 326 326 327 329 329 327 322 318 324 324 323 321 320 319 318 316 314 311 309
321 323 324 323 322 325 326 328 328 327 327 327 327 327 329 329 328 328 322 324 322 322 324 323 320 319 318 316 314 311 308 306
321 321 324 324 324 325 327 329 329 328 328 328 328 329 329 328 327 328 324 324 325 323 322 321 320 318 314 312 310 309 306 303
320 320 322 325 325 326 327 328 330 329 329 329 329 329 327 327 326 324 325 323 323 322 321 318 315 313 311 309 308 305 301 301
320 320 320 324 326 327 328 330 331 330 328 328 328 326 325 324 323 323 321 320 321 319 316 311 309 309 309 307 304 300 300 299

GFSFLT1_850_thetae_087.txt.gz
Theta_e
324 325 325 325 325 326 326 327 326 323 319 318 318 316 314 314 317 320 316 316 316 315 317 318 317 319 321 322 322 319 317 312
324 323 324 323 325 325 324 325 325 322 318 317 315 319 315 314 316 318 316 315 315 317 319 319 320 320 322 322 321 320 319 314
322 320 322 323 323 323 324 323 324 320 318 315 315 321 319 315 316 316 315 315 317 319 321 322 322 322 323 322 322 320 319 314
321 323 322 321 322 321 322 322 321 320 317 314 313 316 316 319 316 315 315 317 317 318 319 320 322 322 323 323 322 321 320 317
320 322 322 323 322 321 320 320 320 319 316 315 316 314 314 315 317 316 316 316 318 318 318 321 322 323 323 323 323 321 321 319
316 321 321 321 321 320 320 320 320 319 319 318 318 316 315 318 317 316 316 316 317 316 317 320 321 322 322 323 323 322 321 318
317 318 321 321 321 320 318 318 318 318 318 317 315 315 315 316 315 315 315 315 315 316 315 317 320 321 322 323 323 322 321 318
319 317 320 321 320 319 317 317 317 317 317 316 314 315 316 316 315 316 315 315 316 316 314 317 320 322 322 322 323 322 321 318
320 317 317 320 318 316 315 315 315 315 316 316 315 315 316 317 317 316 316 315 313 313 315 318 319 321 321 322 323 322 322 317
323 321 318 317 319 317 317 316 316 316 316 315 314 313 313 314 313 313 314 316 318 320 320 318 319 321 322 322 323 323 322 320
323 323 322 320 317 318 317 317 318 318 318 317 318 319 318 319 319 320 321 320 321 321 322 322 320 320 323 322 323 323 321 319
324 324 325 324 320 318 318 317 317 318 320 321 322 323 324 323 322 322 323 324 324 323 322 323 324 323 323 322 323 322 321 319
324 325 325 325 324 323 320 318 317 317 317 318 319 320 323 323 325 325 326 325 325 325 323 323 324 324 324 322 322 322 322 319
324 324 325 325 325 325 324 324 322 320 319 319 319 320 320 321 322 323 325 326 326 325 323 322 321 324 324 323 321 321 320 318
324 324 325 325 325 325 325 325 325 325 324 324 324 323 323 323 322 322 323 327 326 318 316 317 319 323 322 321 321 321 319 317
321 324 324 324 325 325 325 325 325 326 326 326 326 325 325 324 324 325 326 326 326 322 320 320 317 323 322 321 319 319 317 315
319 321 323 323 323 323 323 323 324 325 326 326 326 326 326 326 326 326 326 327 327 326 321 323 321 322 322 321 318 317 312 309
320 320 321 321 323 323 323 324 325 326 326 326 326 326 326 327 327 327 324 325 324 323 322 323 322 321 319 319 316 311 310 309
321 321 320 320 322 324 325 325 326 327 327 327 327 327 328 326 326 325 325 323 322 323 322 320 319 316 316 310 309 308 307 305

GFSFLT1_850_thetae_090.txt.gz
Theta_e
324 325 326 326 326 327 327 327 325 326 325 323 320 317 317 319 320 320 316 315 319 320 318 317 316 318 319 320 321 321 319 314
322 324 324 325 325 325 325 326 325 325 323 318 317 322 321 323 322 321 315 320 321 318 318 317 316 318 319 320 321 321 318 314
321 323 324 324 324 324 324 322 323 324 319 317 317 320 319 320 317 314 314 315 317 317 316 317 316 318 319 320 322 321 319 317
321 321 322 322 323 323 324 323 324 323 320 316 316 317 319 320 317 315 315 316 316 315 315 316 318 320 321 321 322 322 321 319
319 323 323 322 322 321 322 322 323 323 320 318 316 316 316 316 314 317 318 316 316 315 318 319 321 322 321 322 322 322 322 321
319 319 322 322 322 322 321 321 321 321 321 319 316 318 318 317 315 315 316 317 315 316 318 318 319 320 321 322 323 322 322 322
320 317 321 322 321 321 320 320 320 320 320 319 317 314 314 315 316 316 316 314 315 317 318 319 317 317 320 321 322 322 323 322
321 319 319 321 321 320 320 320 320 320 319 318 316 316 316 316 316 316 315 316 316 316 316 317 316 316 316 318 320 321 322 322
322 321 317 320 321 319 317 317 319 319 319 319 319 318 317 317 317 317 316 316 316 315 316 316 315 315 314 315 317 321 322 322
323 322 320 316 319 318 316 315 315 316 317 318 317 316 316 316 316 315 315 316 315 315 315 314 315 315 313 316 318 320 321 321
322 322 322 320 316 319 318 316 315 314 314 314 315 316 316 315 315 316 316 316 316 316 316 315 314 314 320 321 319 320 322 322
323 324 323 322 320 317 318 317 316 315 315 316 315 315 314 313 313 314 314 315 314 314 314 316 319 321 322 322 322 321 321 320
322 323 323 323 323 321 318 318 317 317 317 317 318 318 318 317 317 318 317 318 319 320 321 322 323 323 324 323 322 323 316 317
322 323 323 323 323 324 324 322 320 318 317 317 317 317 318 320 321 322 323 323 323 324 324 324 325 323 322 322 321 318 323 318
321 322 323 323 324 324 324 324 325 323 322 320 320 321 320 318 318 318 319 319 320 321 322 321 319 322 318 320 321 319 322 322
320 322 322 322 323 323 324 323 323 324 324 324 324 320 319 319 319 320 321 321 322 322 323 323 325 321 317 318 319 321 321 320
321 320 322 322 323 323 323 323 323 324 324 324 324 323 322 322 322 323 323 323 323 324 324 322 323 322 322 320 319 322 321 320
320 320 320 320 321 323 324 324 324 324 324 324 324 324 324 324 324 324 324 325 324 324 323 324 323 321 320 321 319 320 317 315
319 319 320 320 320 321 321 322 323 323 323 324 324 324 324 324 324 323 323 324 323 324 323 322 321 320 319 314 311 310 310 308

GFSFLT1_850_thetae_093.txt.gz
Theta_e
321 322 323 325 326 327 327 326 326 326 326 325 325 325 325 324 321 320 322 321 317 316 316 316 317 318 318 319 320 320 320 319
321 322 324 325 325 325 326 326 326 325 326 325 324 324 322 315 318 317 318 319 321 319 318 317 316 318 318 319 320 320 320 315
321 322 323 324 324 324 325 324 326 326 325 325 324 323 316 314 317 317 319 321 318 318 320 320 317 318 318 319 320 320 319 316
321 320 324 324 323 322 324 322 324 325 324 324 322 316 314 316 322 319 319 317 316 316 321 320 317 317 316 318 319 320 321 318
321 320 321 323 322 323 323 321 322 324 323 321 318 316 316 318 323 322 321 317 316 318 317 317 315 316 315 317 319 320 321 320
321 319 320 320 321 321 322 322 321 323 322 319 316 318 319 320 320 318 315 315 315 315 315 318 316 315 317 320 321 321 321 321
322 320 319 321 321 321 321 321 322 322 321 319 317 316 319 319 318 316 315 314 314 316 316 316 316 318 319 319 320 321 322 322
323 320 319 320 321 320 320 321 320 321 321 320 318 318 317 317 318 316 314 315 315 316 316 318 318 317 318 318 318 319 320 321
324 322 319 317 320 320 319 320 320 321 321 320 319 318 317 315 315 315 313 314 316 315 316 316 317 317 317 318 316 315 315 316
323 323 321 316 319 319 318 318 319 320 320 320 320 319 317 316 316 315 315 316 316 315 315 314 316 316 316 316 315 315 315 314
321 323 322 320 316 319 318 317 316 317 319 319 319 319 318 317 316 317 318 316 316 316 315 316 316 315 315 315 315 315 316 318
321 322 323 321 320 317 318 318 316 315 315 316 318 318 318 317 317 317 317 316 316 316 316 316 315 315 315 315 315 317 321 322
321 321 322 321 321 321 318 318 318 316 315 314 314 314 314 315 316 316 316 316 316 316 316 316 316 315 315 317 320 319 319 321
321 322 322 322 322 322 322 320 318 318 317 316 316 315 316 315 315 314 314 314 314 315 315 316 317 319 321 323 322 322 323 318
320 321 322 322 322 323 323 323 322 320 318 318 317 317 317 317 317 318 319 319 320 320 321 321 321 321 322 321 319 319 322 319
319 320 322 322 322 322 322 323 323 323 322 321 320 318 317 317 317 317 317 317 318 318 319 319 321 322 322 323 322 323 323 317
320 320 320 321 321 321 322 322 323 323 323 323 323 322 321 319 318 318 318 318 318 319 322 323 322 323 323 322 323 321 321 320
320 321 321 320 320 321 322 323 323 323 323 323 323 323 323 323 322 322 322 323 323 323 323 324 324 322 322 322 321 320 319 317
320 320 319 318 319 319 319 321 322 323 323 323 323 323 324 324 323 323 323 323 323 323 324 323 320 320 320 320 319 315 312 310

GFSFLT1_850_thetae_096.txt.gz
Theta_e
327 326 323 324 325 326 326 326 325 325 325 326 326 326 326 326 325 326 322 320 318 316 320 317 317 318 318 318 318 319 318 316
326 325 324 324 325 326 326 326 326 326 326 324 325 326 326 327 326 324 324 321 318 317 316 316 317 318 318 319 319 319 320 317
326 324 322 324 325 325 326 326 326 326 326 324 325 325 326 326 325 324 322 324 317 316 316 317 317 318 318 319 319 318 320 320
326 324 320 324 324 323 325 325 325 325 326 324 324 325 325 324 323 321 320 323 318 316 316 316 316 317 317 318 319 319 320 320
327 325 322 323 324 322 324 324 322 324 325 325 324 324 323 319 318 320 319 322 322 321 318 317 318 317 317 318 319 317 319 320
327 326 323 321 324 323 323 323 322 324 324 325 325 323 316 315 318 318 316 318 318 320 318 317 321 318 317 316 316 316 319 319
327 326 324 324 322 322 323 323 322 323 323 323 323 319 315 314 317 319 318 318 320 319 317 316 317 317 316 316 315 316 318 319
327 326 324 324 323 321 321 322 322 323 323 322 321 318 315 315 317 323 322 320 319 317 316 316 316 316 315 316 316 318 319 320
327 326 325 324 323 321 320 321 322 323 323 323 320 320 318 318 320 320 320 318 317 316 316 316 314 315 316 317 318 318 319 318
327 327 326 324 323 322 320 320 320 321 322 322 321 319 317 319 321 319 317 317 317 315 314 315 317 317 318 318 319 321 320 318
327 327 326 325 322 322 320 321 321 320 320 320 321 320 319 319 319 320 320 319 318 318 319 319 319 319 319 319 319 320 319 319
326 327 326 325 324 321 320 319 320 320 321 320 320 320 319 319 319 318 317 317 318 318 318 319 319 319 319 319 319 319 319 317
325 326 326 326 325 323 318 319 318 318 319 320 320 320 320 320 319 319 318 318 318 318 319 319 319 319 319 319 317 316 316 315
325 325 326 326 325 325 323 320 319 320 320 320 320 319 319 319 319 318 319 318 319 319 319 319 319 319 319 317 316 315 316 319
324 325 325 326 326 325 325 324 323 322 322 321 320 318 317 318 316 316 317 317 316 316 316 316 317 318 319 320 319 321 321 322
322 324 325 326 325 325 325 325 324 323 323 322 321 319 318 318 317 316 316 317 316 317 319 320 320 321 320 320 321 322 323 323
322 321 324 326 325 325 325 323 324 324 323 323 322 321 320 320 319 319 317 319 319 319 320 320 320 321 322 323 323 322 321 320
322 321 320 324 325 325 326 325 324 324 324 323 323 322 322 321 321 321 321 320 321 320 321 322 322 322 322 323 322 320 318 317
320 321 319 318 323 324 326 325 325 324 324 323 323 322 322 322 321 321 321 321 322 322 322 322 321 321 321 319 319 317 316 314

GFSFLT1_850_thetae_099.txt.gz
Theta_e
332 330 330 328 327 326 327 328 327 326 325 327 325 325 326 327 329 328 325 322 322 322 316 318 323 324 323 322 320 319 319 319
331 329 329 328 326 326 327 326 325 325 326 326 325 326 326 328 328 327 327 323 322 317 314 322 322 322 320 319 319 320 320 319
330 329 328 327 325 325 327 326 326 325 326 325 325 327 327 327 328 327 327 324 321 320 320 320 320 319 319 319 320 321 320 319
330 329 328 328 327 325 326 327 326 325 326 325 326 326 327 327 328 327 327 326 318 319 317 320 318 319 319 319 320 320 320 318
330 329 327 328 327 325 324 325 325 326 326 325 326 325 325 325 326 326 326 322 317 315 319 319 317 319 320 318 318 319 320 319
329 329 328 327 327 326 325 324 324 325 325 324 325 323 325 325 324 324 322 319 318 318 319 317 316 319 321 318 317 318 319 319
329 329 328 326 326 327 327 323 323 324 325 325 324 323 324 324 324 322 321 323 322 318 317 317 317 318 319 318 317 318 317 318
329 329 328 327 326 326 324 325 323 324 324 325 325 325 325 323 321 320 320 320 322 321 319 318 319 320 320 319 317 317 317 316
329 329 328 327 327 326 323 323 323 323 324 323 322 322 322 320 320 321 319 319 319 319 320 320 319 317 317 317 317 316 317 318
329 329 329 327 327 327 325 324 323 322 324 324 323 322 321 317 315 318 319 320 319 318 318 318 319 318 317 317 317 317 317 317
329 329 329 328 327 327 325 325 325 324 322 324 323 322 322 321 317 318 320 322 321 320 319 318 317 316 316 316 315 317 317 319
328 329 329 329 328 327 326 325 324 324 324 323 323 323 323 322 322 322 321 321 320 320 319 318 318 319 319 319 318 318 319 320
327 329 329 329 328 327 326 325 325 325 324 323 323 323 323 321 321 321 321 321 321 320 320 320 320 320 320 320 320 320 320 320
327 328 329 329 328 327 327 325 325 324 324 324 324 324 324 323 323 322 321 321 321 321 320 320 320 320 320 321 321 320 320 321
327 328 328 329 329 328 327 326 324 324 323 323 324 324 324 324 324 323 323 322 322 322 321 322 322 322 322 322 322 321 321 321
325 327 328 328 329 329 328 328 326 324 324 324 324 324 324 324 324 324 323 322 322 322 322 322 322 321 321 321 321 320 321 321
323 324 326 327 328 329 328 328 328 326 326 325 325 324 324 324 323 323 322 322 322 322 321 321 321 321 321 321 322 322 321 321
322 323 324 326 328 328 328 328 328 327 327 326 326 325 325 324 324 323 323 322 322 322 322 322 322 322 322 322 322 322 320 319
322 322 323 323 326 328 328 328 328 328 327 326 326 326 325 325 324 323 322 322 321 321 321 321 321 321 321 321 320 318 316 313

GFSFLT1_850_thetae_102.txt.gz
Theta_e
332 332 331 331 329 327 327 328 328 327 327 326 327 328 330 330 328 327 325 324 324 326 324 325 326 326 325 326 325 322 319 317
333 332 331 331 327 325 326 327 327 327 326 324 326 326 328 329 329 327 325 324 326 325 325 325 325 325 324 325 323 320 318 317
332 331 331 330 326 326 327 327 326 326 324 326 324 324 325 326 330 328 327 325 325 324 325 324 324 324 324 323 322 319 320 319
332 331 331 330 325 328 326 327 326 326 325 325 325 326 326 326 326 329 327 325 324 324 324 320 321 318 323 323 321 320 321 320
331 331 331 330 326 328 327 327 325 326 326 325 325 327 327 327 326 326 327 326 325 322 320 317 315 317 321 320 319 320 321 320
332 331 330 329 327 329 326 327 327 326 326 325 325 326 327 328 327 327 328 326 324 321 319 316 315 320 319 320 318 320 320 321
330 331 330 329 328 328 325 326 327 325 325 325 325 325 326 326 326 327 327 327 325 320 320 314 319 319 320 317 319 318 319 321
329 330 330 328 329 326 327 324 327 324 326 325 325 325 325 324 324 324 323 323 322 319 317 315 317 319 318 316 316 319 319 318
329 330 330 328 328 324 327 325 325 324 325 325 324 324 324 324 324 323 323 321 319 318 317 315 316 318 316 315 319 319 317 317
329 330 330 328 328 325 325 326 325 326 324 325 325 325 324 325 324 324 323 322 321 317 316 316 317 318 315 319 320 318 317 317
329 330 330 329 329 328 324 325 323 324 324 324 323 322 322 323 322 322 321 321 321 322 319 317 317 317 318 317 318 317 317 317
329 330 330 329 329 328 327 325 325 323 324 324 324 323 322 320 319 321 320 319 319 319 320 321 320 320 319 317 318 318 317 316
328 329 330 330 328 328 327 326 326 325 323 327 325 322 322 321 321 318 316 318 321 321 321 320 319 318 318 318 317 316 318 320
327 329 330 330 329 328 328 326 326 325 325 324 324 322 323 322 322 322 322 322 321 321 321 321 320 319 318 318 318 319 319 319
327 328 330 330 330 329 328 327 326 326 325 324 324 324 323 322 321 321 322 322 321 321 320 320 320 320 320 320 320 320 320 321
323 328 329 330 330 329 328 328 326 325 325 325 325 324 323 323 323 322 322 321 321 321 321 321 321 321 321 322 322 323 322 322
319 325 327 329 330 330 329 328 327 325 325 324 325 325 325 324 324 324 323 323 322 322 322 322 322 322 321 321 321 321 321 321
318 322 324 328 329 330 330 329 328 327 325 325 324 324 325 325 324 324 323 322 322 321 322 321 321 320 320 320 321 321 320 320
319 322 323 323 328 329 329 329 329 328 327 326 326 325 325 325 324 324 322 322 322 321 321 321 321 320 320 320 320 319 319 314

GFSFLT1_850_thetae_105.txt.gz
Theta_e
331 332 332 332 331 331 329 327 328 328 328 328 330 330 329 327 328 328 327 325 324 324 324 324 322 322 321 323 325 324 323 320
331 331 331 331 330 330 324 327 327 328 328 328 328 329 330 328 328 326 324 324 323 323 324 323 322 322 323 323 326 324 322 319
332 332 331 330 330 326 323 326 328 327 326 325 325 326 328 328 328 326 325 325 324 323 324 323 323 323 323 324 325 323 320 317
332 332 331 331 329 322 324 327 327 326 325 323 325 324 325 327 329 328 326 325 325 324 324 324 324 324 325 325 324 323 319 317
332 331 331 330 326 321 325 329 326 325 326 326 325 324 325 325 326 328 327 325 325 322 325 326 326 325 325 324 323 322 319 319
332 331 330 329 327 319 323 328 329 325 325 324 324 324 325 326 325 327 327 326 325 326 325 325 325 325 323 322 319 321 320 320
331 331 330 330 327 320 322 328 326 325 326 325 325 325 326 327 327 326 326 325 324 326 324 324 324 321 320 321 321 320 320 319
331 331 330 329 327 320 322 327 326 326 325 325 325 325 327 327 327 326 325 324 324 326 325 324 319 317 317 317 318 319 317 317
331 330 330 329 327 322 320 325 325 325 324 327 324 324 325 326 325 326 325 326 324 325 324 323 320 317 316 318 319 318 315 318
331 330 330 329 328 322 321 323 324 324 323 326 324 325 324 325 324 325 326 326 326 325 324 321 319 318 316 319 319 316 316 318
330 330 330 330 328 323 321 321 323 322 323 325 324 324 323 323 324 323 323 323 324 324 322 320 318 318 318 318 318 316 317 316
330 330 330 330 329 326 320 322 322 322 322 324 325 325 324 324 324 324 323 323 321 321 321 320 318 317 316 318 317 316 315 319
330 330 330 329 329 328 323 321 322 322 321 323 324 324 323 322 323 323 322 322 322 322 320 318 318 317 316 318 317 316 318 318
328 330 330 329 329 328 327 323 322 323 323 323 322 321 322 321 321 321 321 321 320 320 320 321 320 318 317 316 318 319 319 318
322 330 330 329 329 329 328 326 324 324 323 323 323 324 322 321 321 320 319 318 318 319 320 321 321 320 319 319 319 319 319 318
318 321 328 330 329 329 328 327 325 326 325 323 323 324 322 322 322 322 319 317 320 321 321 321 321 321 321 320 320 320 320 321
318 319 320 327 330 329 329 328 325 326 325 325 323 322 322 322 322 322 322 323 322 322 321 321 321 321 321 321 321 321 321 322
321 318 318 318 329 330 329 328 328 325 326 325 325 324 323 323 322 322 321 321 321 321 320 321 321 321 321 321 321 322 321 320
323 324 322 323 325 329 329 329 328 327 325 325 325 325 325 324 324 323 322 322 322 322 322 322 322 322 321 321 320 320 320 316

GFSFLT1_850_thetae_108.txt.gz
Theta_e
322 326 329 331 331 332 332 330 324 325 328 329 329 331 327 328 327 328 327 327 327 324 327 314 314 316 314 313 311 314 317 318
324 328 331 332 332 332 331 328 323 326 328 328 329 330 327 330 328 328 327 327 327 326 325 315 316 317 316 315 319 322 322 322
326 331 332 332 331 331 330 322 324 326 327 328 329 329 329 327 327 327 327 326 327 326 325 317 317 319 318 318 322 324 323 322
329 332 332 331 331 330 328 321 323 326 327 327 327 328 329 328 327 328 328 326 326 326 325 323 319 320 319 319 323 325 324 321
328 331 331 331 331 330 322 323 324 326 326 326 325 325 327 330 328 328 329 328 325 325 325 324 325 321 321 320 323 325 324 321
328 330 331 331 330 329 321 324 325 326 326 324 323 324 324 326 328 329 327 327 326 325 325 323 325 323 322 323 323 325 324 320
326 330 331 331 330 327 321 324 324 324 324 326 326 326 323 326 325 325 327 327 327 326 324 323 325 324 323 324 324 323 323 320
329 330 331 331 329 326 321 323 323 326 325 325 325 324 324 325 326 326 325 326 327 327 324 325 324 325 323 324 325 323 321 319
328 329 331 330 329 325 321 321 322 324 326 324 324 325 324 327 326 327 326 326 326 325 326 324 325 325 325 324 324 321 319 318
329 330 331 330 329 324 320 320 321 322 325 324 325 323 324 325 325 326 326 325 326 326 324 323 325 325 324 323 321 320 320 319
329 330 330 330 328 325 321 320 319 321 325 323 324 324 323 324 325 325 326 326 325 325 325 324 324 324 321 320 319 317 317 318
329 328 330 329 329 326 321 320 321 320 322 325 325 324 324 324 324 324 324 325 324 324 322 323 323 322 321 321 320 318 318 319
325 328 327 329 328 327 322 320 320 319 320 323 326 324 324 323 323 323 323 323 324 324 325 322 323 323 321 321 319 318 318 318
321 329 327 327 329 328 326 319 318 318 320 322 324 324 324 323 323 323 323 323 323 322 322 323 322 321 320 319 319 317 318 317
319 323 328 327 326 328 327 321 318 319 320 321 323 324 324 324 322 323 323 322 322 321 322 321 320 320 319 318 317 317 317 318
320 325 328 328 328 327 327 326 319 319 320 321 321 323 323 322 321 321 322 321 320 320 320 320 320 320 319 318 317 317 317 318
322 321 326 328 329 328 327 326 325 320 322 321 322 321 321 322 321 320 320 320 320 319 319 319 320 321 321 320 320 320 320 320
319 322 320 320 324 323 328 327 325 324 322 324 322 322 322 322 321 321 321 319 319 318 320 321 321 321 321 321 321 321 321 321
317 318 322 322 320 323 328 328 327 325 325 324 324 323 322 322 323 322 321 322 321 320 322 322 321 321 321 321 321 321 320 318

GFSFLT1_850_thetae_111.txt.gz
Theta_e
318 319 319 321 326 331 333 332 331 328 325 328 329 329 328 328 327 326 325 327 326 325 324 326 327 310 308 309 313 319 320 321
318 320 320 326 329 332 332 332 330 326 324 328 328 329 330 327 328 326 324 326 325 324 327 325 326 309 308 308 310 318 320 321
319 319 321 323 331 332 332 331 330 324 324 328 328 329 329 327 328 326 324 325 324 324 324 325 325 310 309 308 310 318 320 320
319 319 324 327 331 332 331 331 329 323 326 327 327 329 328 329 327 328 327 326 325 324 325 325 325 311 312 310 310 316 318 319
318 321 325 327 332 332 331 330 327 322 326 327 327 330 328 328 329 327 329 327 325 325 327 325 326 313 314 313 311 311 315 321
318 319 322 328 332 331 331 329 323 323 326 327 327 327 330 328 327 328 327 326 326 327 325 327 326 317 314 316 314 318 321 321
321 321 324 328 331 331 330 329 321 323 326 326 325 325 325 328 328 327 327 327 327 327 326 327 326 321 315 317 316 320 324 323
324 322 322 326 331 330 330 327 321 324 329 325 324 323 322 324 325 327 328 328 328 327 326 328 326 326 318 318 317 319 324 324
324 323 322 325 330 330 330 325 321 325 325 326 323 324 324 323 323 324 324 326 327 328 328 326 326 326 324 324 320 319 322 323
320 327 327 327 329 330 329 324 320 323 325 324 326 324 324 325 324 326 325 326 326 326 327 327 327 326 324 324 323 324 322 320
319 328 327 327 329 330 328 323 319 322 324 323 324 324 324 324 324 325 325 326 325 324 326 326 326 326 324 324 324 323 323 321
319 319 328 327 328 327 328 322 320 322 321 322 324 324 325 324 325 323 325 325 325 324 325 325 326 325 325 325 324 322 322 320
317 316 327 328 327 326 326 322 320 321 321 321 322 324 324 323 324 324 323 324 325 325 324 324 324 324 324 325 324 323 320 319
317 319 326 327 328 326 325 324 323 321 320 320 322 323 323 323 323 322 323 323 323 323 323 322 322 323 324 324 322 321 321 320
321 322 324 327 327 328 327 324 323 323 320 320 323 324 323 324 323 322 323 323 323 323 322 322 321 321 322 322 322 321 320 318
320 320 325 325 327 327 326 326 324 322 321 320 322 324 324 323 323 323 322 323 323 322 322 322 322 322 322 323 321 319 318 318
318 318 320 322 326 326 327 327 326 322 322 321 321 323 324 324 323 322 321 322 322 321 321 321 320 321 320 320 319 318 317 316
316 317 318 321 320 325 327 327 326 324 322 322 321 321 323 323 322 321 321 321 321 320 320 320 320 320 320 320 319 319 318 318
316 314 316 319 322 320 325 327 327 326 324 323 322 322 321 321 322 320 320 320 321 320 319 319 319 320 320 321 321 321 320 319

GFSFLT1_850_thetae_114.txt.gz
Theta_e
314 315 316 317 320 319 318 328 330 332 332 329 326 329 327 326 326 327 328 327 327 327 327 327 321 325 314 314 322 319 320 320
314 315 316 319 320 321 320 327 331 333 331 327 325 328 329 328 328 326 326 326 326 328 327 327 322 326 314 310 321 319 319 320
315 316 317 319 319 322 323 329 331 332 330 326 325 328 329 329 328 328 326 325 325 327 326 326 320 326 317 309 318 319 318 320
316 316 317 318 319 322 326 331 331 331 329 324 326 328 328 329 327 327 324 326 327 327 326 327 325 326 318 308 311 316 318 320
320 319 316 318 320 324 330 332 332 331 328 324 326 328 328 328 327 326 325 326 326 325 325 325 325 326 317 308 309 313 317 320
320 322 321 320 321 324 329 332 332 330 326 324 326 327 327 328 327 329 326 325 325 325 324 325 324 326 323 309 308 309 316 319
318 319 325 321 322 324 330 332 331 330 326 325 325 327 328 327 328 327 329 328 326 326 324 324 323 324 326 312 309 308 312 319
318 319 324 324 325 325 329 332 331 329 325 325 325 327 326 327 327 327 328 328 328 326 325 325 325 326 325 322 310 310 309 317
319 318 318 326 325 325 328 331 330 328 324 322 324 326 326 326 327 326 327 327 327 325 326 326 326 325 325 326 314 312 310 312
318 318 317 319 326 325 326 330 329 328 323 320 325 324 323 322 323 324 325 327 327 326 328 327 326 325 325 326 322 314 315 316
317 318 317 317 323 326 325 328 328 326 322 320 325 323 323 323 322 323 323 324 324 324 326 326 327 326 326 326 324 317 316 316
317 318 319 320 323 326 324 327 327 324 322 321 322 322 321 323 323 323 323 325 326 326 325 325 326 326 327 326 326 324 318 318
318 318 320 322 325 326 325 325 327 324 323 323 322 322 322 324 323 323 324 323 325 325 325 325 325 326 326 326 326 325 323 321
316 318 319 325 326 326 325 326 327 323 322 322 320 321 321 321 323 323 322 323 324 325 324 323 324 325 325 326 325 324 323 322
314 317 316 321 325 325 325 326 327 323 322 323 320 319 321 321 324 322 321 322 323 322 322 323 323 324 323 324 324 324 323 321
312 315 313 316 321 324 325 325 327 324 322 322 321 319 320 320 321 321 321 321 322 322 321 321 321 322 322 323 324 323 321 321
314 314 313 314 316 321 324 325 325 325 323 322 321 320 320 320 320 320 320 321 321 322 321 321 320 321 321 321 321 322 321 319
314 316 314 315 315 319 323 324 325 325 324 322 321 321 321 321 320 320 323 319 320 319 319 320 320 320 320 320 319 319 319 318
312 313 313 314 316 319 320 323 324 325 324 322 321 323 322 321 320 321 320 320 318 318 318 318 317 319 319 320 319 319 318 317

GFSFLT1_850_thetae_117.txt.gz
Theta_e
313 314 315 315 314 315 317 319 319 322 330 330 333 334 330 326 326 324 324 327 327 327 327 327 327 325 326 316 317 325 323 321
313 315 317 316 317 317 319 320 319 323 330 331 333 332 328 326 327 326 325 326 326 327 328 327 328 326 325 318 319 324 320 320
318 319 319 319 316 317 321 322 322 325 330 331 332 331 325 326 328 328 327 327 326 326 327 327 327 326 322 321 316 323 320 320
319 318 320 321 320 318 321 324 325 329 331 333 331 328 323 327 328 328 328 327 326 325 327 327 326 327 324 322 317 322 320 319
319 320 320 324 322 320 321 326 328 330 332 332 330 324 326 329 327 328 328 325 325 325 325 326 327 327 323 324 312 321 321 319
319 319 319 322 324 321 323 326 329 332 332 331 330 322 327 328 326 329 325 324 325 325 325 326 327 326 321 324 311 319 321 319
316 318 318 319 326 324 324 326 330 333 331 331 329 322 327 328 328 327 326 325 326 326 326 326 326 323 321 325 313 310 317 320
315 317 318 318 320 326 325 326 329 332 331 329 327 323 326 327 326 326 328 326 325 326 325 324 325 325 323 326 316 309 310 315
315 317 317 318 319 320 326 327 329 331 330 329 325 324 325 326 327 326 326 328 326 326 325 324 324 325 324 325 319 309 309 310
316 317 318 320 321 320 323 324 328 330 330 329 325 325 326 326 326 326 327 327 326 328 326 326 323 321 319 320 325 318 308 308
316 318 319 321 324 322 324 325 323 329 329 328 325 323 325 325 324 325 325 325 327 327 326 327 325 324 320 319 325 325 317 309
315 316 318 318 323 324 325 323 323 324 328 327 324 322 323 323 321 322 322 323 323 324 325 326 326 326 325 325 326 325 325 315
314 315 314 315 315 321 325 325 323 325 326 326 322 322 323 322 321 322 323 322 322 324 325 325 325 325 326 327 326 325 325 319
314 314 314 315 313 317 323 324 323 324 326 323 320 321 324 322 321 323 323 322 323 325 324 324 324 324 325 325 326 325 325 324
314 314 313 314 313 315 319 323 323 324 324 322 320 323 324 321 321 322 321 321 323 324 324 323 323 324 325 325 323 325 324 323
315 315 313 312 314 315 318 321 323 323 325 323 321 322 322 321 321 321 321 321 321 321 321 322 322 323 324 323 323 322 322 323
316 315 314 313 314 314 316 319 322 323 324 322 321 321 320 321 321 321 321 320 321 321 321 321 321 321 322 323 321 323 322 322
312 312 314 313 313 313 316 318 319 323 323 322 321 321 320 320 321 321 320 320 321 320 321 321 320 320 320 320 321 322 320 320
310 311 311 311 312 314 315 318 319 320 323 322 323 320 321 320 320 321 320 320 320 319 319 320 320 319 319 320 320 320 320 318

GFSFLT1_850_thetae_120.txt.gz
Theta_e
315 315 317 318 318 317 316 314 315 322 327 333 334 331 330 331 332 332 331 329 327 330 329 329 327 326 326 323 323 323 324 325
315 319 321 323 323 322 317 318 318 325 328 332 333 332 331 331 333 332 326 326 327 327 329 327 328 328 326 324 322 323 324 323
319 320 321 323 326 322 322 324 326 329 328 332 331 331 331 332 333 328 324 325 325 326 330 326 328 328 327 326 322 323 324 324
320 322 322 323 325 328 328 329 330 328 331 329 331 330 331 333 330 324 327 327 327 327 326 327 327 327 326 326 323 321 323 324
321 321 322 322 326 328 329 330 324 327 329 330 331 331 332 332 326 323 328 328 328 329 326 326 325 326 326 326 323 319 322 323
319 319 320 321 324 323 329 330 323 329 332 332 333 333 332 328 322 326 329 327 327 326 325 324 325 326 326 325 323 321 322 322
318 318 319 320 322 324 324 325 328 330 332 334 333 333 331 326 327 329 327 328 325 326 325 325 325 325 326 325 324 321 321 322
318 319 319 321 323 323 324 324 329 331 332 332 331 330 328 325 329 327 327 327 325 326 326 325 324 325 326 325 323 321 320 321
317 319 320 322 324 326 325 326 326 328 327 332 331 329 326 327 327 329 327 327 326 325 326 325 325 325 325 324 325 322 317 319
317 317 319 320 321 323 326 326 325 326 328 330 331 329 327 330 328 327 327 327 327 326 325 326 325 323 324 325 323 322 318 315
316 316 318 318 318 320 325 327 325 325 327 328 330 329 327 326 326 326 327 327 326 327 326 325 326 324 324 323 322 323 322 313
315 316 316 316 318 318 322 325 324 324 325 325 328 328 327 324 326 325 325 325 327 327 326 325 325 325 324 322 323 324 324 315
315 315 316 316 317 317 319 323 323 324 323 324 327 328 326 324 324 324 324 324 324 324 324 325 326 324 326 324 322 321 322 321
313 315 316 316 316 316 316 319 323 323 323 323 326 326 326 323 323 323 324 324 322 323 323 323 324 323 323 325 323 322 319 318
313 316 317 316 315 315 315 317 320 322 323 323 325 324 323 324 323 323 323 322 322 323 324 324 324 324 324 324 325 324 323 321
314 317 318 317 314 314 314 315 317 320 323 323 324 323 323 323 322 323 322 321 322 323 324 323 324 323 323 324 323 324 323 321
317 316 315 313 311 312 314 313 314 318 321 322 323 322 322 322 322 322 321 321 321 321 321 322 322 322 322 323 323 322 321 319
314 313 311 310 310 311 312 313 314 317 320 322 322 322 321 321 322 322 321 321 321 322 321 321 321 321 320 322 322 322 320 318
310 309 308 307 306 307 311 313 313 316 319 321 323 322 320 321 321 321 321 321 321 321 321 320 320 320 320 320 321 320 320 320

GFSFLT1_850_thetae_123.txt.gz
Theta_e
316 317 317 319 319 319 321 321 321 323 328 335 338 338 335 338 336 337 335 334 334 334 333 332 331 330 330 328 326 324 326 325
316 317 320 322 323 325 325 325 323 322 326 332 336 338 337 336 338 335 336 335 333 333 332 331 331 328 329 327 326 323 325 326
317 319 321 323 324 326 329 329 329 329 328 332 335 336 335 336 336 333 332 333 332 329 329 328 328 329 327 327 326 324 323 325
319 321 322 324 326 330 331 330 330 332 332 334 335 334 333 334 334 331 331 332 330 329 327 327 329 328 328 327 327 323 322 323
320 320 321 323 325 330 332 332 332 333 333 334 332 332 331 332 334 332 332 332 327 328 328 328 328 329 329 327 327 323 323 323
319 319 320 321 324 325 329 332 333 333 332 334 332 331 331 332 332 331 333 329 328 329 329 329 328 329 326 327 326 326 321 324
319 319 320 321 324 326 326 328 330 331 333 330 332 330 334 334 334 332 329 329 329 329 329 328 327 327 325 325 326 326 318 323
319 319 320 321 323 325 328 327 328 330 331 331 332 332 333 334 333 328 329 329 328 327 327 325 326 325 325 325 325 325 318 324
318 318 319 320 321 322 325 327 328 328 327 330 332 332 333 333 333 331 331 329 327 327 325 327 325 324 324 325 324 325 321 322
317 317 318 319 318 319 322 326 327 328 327 327 331 331 332 332 331 328 330 330 328 326 326 325 327 324 324 323 323 324 322 321
314 316 317 317 317 319 321 322 326 327 327 326 328 330 331 331 330 330 329 329 329 327 328 326 326 325 324 323 323 324 322 320
312 315 316 317 317 319 319 320 322 325 325 325 325 328 329 330 330 329 329 330 328 327 326 327 326 326 324 322 322 323 322 322
308 314 315 317 318 318 318 318 319 321 325 325 324 327 329 329 328 327 328 328 327 326 327 326 326 325 325 324 323 322 323 322
307 311 314 316 317 317 317 317 316 318 323 324 324 326 329 328 327 326 325 325 325 327 325 325 326 325 325 325 324 323 323 318
308 309 314 316 318 317 316 314 315 315 320 323 324 325 328 327 326 324 324 323 324 324 324 325 325 326 325 324 324 323 321 320
310 313 316 318 317 315 314 312 313 314 317 323 323 324 327 326 324 323 323 323 323 323 323 323 323 323 325 324 324 324 324 323
312 316 315 315 314 313 312 311 313 312 314 320 322 323 326 324 324 323 322 323 323 322 324 324 323 324 323 323 322 323 322 322
314 314 313 312 311 310 309 308 311 312 313 315 321 322 324 324 324 323 323 322 322 322 322 322 322 322 322 322 321 323 322 320
312 312 310 309 308 305 307 307 308 312 312 314 319 322 324 324 323 323 322 321 321 322 321 321 322 321 321 321 322 322 321 319